Wetterdaten: Freitag, 07.10.2016
Datum Zeit Temp. A. Feuchte A. Luftdruck Regen Wind Richtung Richtung Sonnenschein ET UV Solar Taupunkt Windchill Windben Empfang
07.10.2016 00:00 7,5 C 96 % 1016,2 hPa 0,0 l/m 8,5 km/h (2 Bft) W-SW 246 0 min 0,000 mm 0,0 UV-I 0 W/m 6,9 C 5,9 C 14,5 km/h (3 Bft) 97,87 %
07.10.2016 00:02 7,5 C 96 % 1016,2 hPa 0,0 l/m 9,9 km/h (2 Bft) W-SW 246 0 min 0,000 mm 0,0 UV-I 0 W/m 6,9 C 4,9 C 17,7 km/h (3 Bft) 97,73 %
07.10.2016 00:04 7,5 C 96 % 1016,2 hPa 0,0 l/m 7,5 km/h (2 Bft) SW 225 0 min 0,000 mm 0,0 UV-I 0 W/m 6,9 C 6,6 C 11,3 km/h (2 Bft) 100,00 %
07.10.2016 00:06 7,5 C 96 % 1016,3 hPa 0,0 l/m 10,6 km/h (2 Bft) W 273 0 min 0,000 mm 0,0 UV-I 0 W/m 6,9 C 4,5 C 14,5 km/h (3 Bft) 100,00 %
07.10.2016 00:08 7,5 C 96 % 1016,3 hPa 0,0 l/m 7,7 km/h (2 Bft) W 259 0 min 0,000 mm 0,0 UV-I 0 W/m 6,9 C 6,5 C 14,5 km/h (3 Bft) 97,37 %
07.10.2016 00:10 7,5 C 96 % 1016,3 hPa 0,2 l/m 9,5 km/h (2 Bft) W 263 0 min 0,000 mm 0,0 UV-I 0 W/m 6,9 C 5,2 C 14,5 km/h (3 Bft) 100,00 %
07.10.2016 00:12 7,5 C 96 % 1016,3 hPa 0,0 l/m 6,7 km/h (2 Bft) W-SW 240 0 min 0,000 mm 0,0 UV-I 0 W/m 6,9 C 7,3 C 9,7 km/h (2 Bft) 100,00 %
07.10.2016 00:14 7,5 C 96 % 1016,3 hPa 0,0 l/m 5,5 km/h (1 Bft) W-SW 246 0 min 0,000 mm 0,0 UV-I 0 W/m 6,9 C 7,5 C 9,7 km/h (2 Bft) 97,92 %
07.10.2016 00:16 7,5 C 96 % 1016,3 hPa 0,0 l/m 7,8 km/h (2 Bft) W-SW 255 0 min 0,000 mm 0,0 UV-I 0 W/m 6,9 C 6,4 C 11,3 km/h (2 Bft) 100,00 %
07.10.2016 00:18 7,5 C 96 % 1016,2 hPa 0,0 l/m 6,5 km/h (2 Bft) W-SW 249 0 min 0,000 mm 0,0 UV-I 0 W/m 6,9 C 7,4 C 12,9 km/h (3 Bft) 100,00 %
07.10.2016 00:20 7,5 C 96 % 1016,2 hPa 0,0 l/m 6,3 km/h (2 Bft) W-SW 242 0 min 0,000 mm 0,0 UV-I 0 W/m 6,9 C 7,5 C 9,7 km/h (2 Bft) 100,00 %
07.10.2016 00:22 7,5 C 96 % 1016,2 hPa 0,0 l/m 5,5 km/h (1 Bft) W-SW 242 0 min 0,000 mm 0,0 UV-I 0 W/m 6,9 C 7,5 C 6,4 km/h (2 Bft) 97,87 %
07.10.2016 00:24 7,5 C 96 % 1016,2 hPa 0,0 l/m 5,8 km/h (2 Bft) SW 230 0 min 0,000 mm 0,0 UV-I 0 W/m 6,9 C 7,5 C 11,3 km/h (2 Bft) 100,00 %
07.10.2016 00:26 7,5 C 96 % 1016,2 hPa 0,0 l/m 5,1 km/h (1 Bft) W-SW 248 0 min 0,000 mm 0,0 UV-I 0 W/m 6,9 C 7,5 C 8,0 km/h (2 Bft) 100,00 %
07.10.2016 00:28 7,5 C 96 % 1016,2 hPa 0,0 l/m 5,4 km/h (1 Bft) S-SW 200 0 min 0,000 mm 0,0 UV-I 0 W/m 6,9 C 7,5 C 8,0 km/h (2 Bft) 97,37 %
07.10.2016 00:30 7,5 C 96 % 1016,2 hPa 0,2 l/m 5,1 km/h (1 Bft) SW 216 0 min 0,000 mm 0,0 UV-I 0 W/m 6,9 C 7,5 C 8,0 km/h (2 Bft) 96,00 %
07.10.2016 00:32 7,5 C 96 % 1016,2 hPa 0,0 l/m 6,8 km/h (2 Bft) W-SW 239 0 min 0,000 mm 0,0 UV-I 0 W/m 6,9 C 7,2 C 14,5 km/h (3 Bft) 97,56 %
07.10.2016 00:34 7,5 C 96 % 1016,2 hPa 0,0 l/m 8,0 km/h (2 Bft) W 269 0 min 0,000 mm 0,0 UV-I 0 W/m 6,9 C 6,2 C 14,5 km/h (3 Bft) 98,11 %
07.10.2016 00:36 7,5 C 96 % 1016,2 hPa 0,0 l/m 8,0 km/h (2 Bft) W-SW 255 0 min 0,000 mm 0,0 UV-I 0 W/m 6,9 C 6,2 C 14,5 km/h (3 Bft) 100,00 %
07.10.2016 00:38 7,5 C 96 % 1016,2 hPa 0,0 l/m 9,5 km/h (2 Bft) W-SW 256 0 min 0,000 mm 0,0 UV-I 0 W/m 6,9 C 5,2 C 14,5 km/h (3 Bft) 100,00 %
07.10.2016 00:40 7,5 C 96 % 1016,2 hPa 0,0 l/m 8,5 km/h (2 Bft) SW 234 0 min 0,000 mm 0,0 UV-I 0 W/m 6,9 C 5,9 C 12,9 km/h (3 Bft) 100,00 %
07.10.2016 00:42 7,5 C 96 % 1016,2 hPa 0,0 l/m 8,3 km/h (2 Bft) SW 235 0 min 0,000 mm 0,0 UV-I 0 W/m 6,9 C 6,0 C 12,9 km/h (3 Bft) 100,00 %
07.10.2016 00:44 7,5 C 96 % 1016,2 hPa 0,0 l/m 7,0 km/h (2 Bft) SW 224 0 min 0,000 mm 0,0 UV-I 0 W/m 6,9 C 7,0 C 11,3 km/h (2 Bft) 100,00 %
07.10.2016 00:46 7,5 C 96 % 1016,2 hPa 0,0 l/m 6,5 km/h (2 Bft) W-SW 244 0 min 0,000 mm 0,0 UV-I 0 W/m 6,9 C 7,4 C 9,7 km/h (2 Bft) 100,00 %
07.10.2016 00:48 7,5 C 96 % 1016,2 hPa 0,0 l/m 5,8 km/h (2 Bft) S-SW 208 0 min 0,000 mm 0,0 UV-I 0 W/m 6,9 C 7,5 C 8,0 km/h (2 Bft) 100,00 %
07.10.2016 00:50 7,5 C 96 % 1016,2 hPa 0,0 l/m 5,7 km/h (1 Bft) W-SW 240 0 min 0,000 mm 0,0 UV-I 0 W/m 6,9 C 7,5 C 9,7 km/h (2 Bft) 100,00 %
07.10.2016 00:52 7,5 C 96 % 1016,2 hPa 0,2 l/m 8,0 km/h (2 Bft) SW 231 0 min 0,000 mm 0,0 UV-I 0 W/m 6,9 C 6,2 C 14,5 km/h (3 Bft) 100,00 %
07.10.2016 00:54 7,5 C 96 % 1016,2 hPa 0,0 l/m 6,9 km/h (2 Bft) W-SW 252 0 min 0,000 mm 0,0 UV-I 0 W/m 6,9 C 7,1 C 11,3 km/h (2 Bft) 98,00 %
07.10.2016 00:56 7,5 C 96 % 1016,2 hPa 0,0 l/m 5,7 km/h (1 Bft) SW 223 0 min 0,000 mm 0,0 UV-I 0 W/m 6,9 C 7,5 C 8,0 km/h (2 Bft) 100,00 %
07.10.2016 00:58 7,5 C 96 % 1016,2 hPa 0,0 l/m 5,7 km/h (1 Bft) SW 223 0 min 0,000 mm 0,0 UV-I 0 W/m 6,9 C 7,5 C 8,0 km/h (2 Bft) 100,00 %
07.10.2016 01:00 7,5 C 96 % 1016,2 hPa 0,0 l/m 5,6 km/h (1 Bft) W 259 0 min 0,000 mm 0,0 UV-I 0 W/m 6,9 C 7,5 C 8,0 km/h (2 Bft) 100,00 %
07.10.2016 01:02 7,5 C 96 % 1016,2 hPa 0,0 l/m 5,2 km/h (1 Bft) W-SW 254 0 min 0,000 mm 0,0 UV-I 0 W/m 6,9 C 7,5 C 6,4 km/h (2 Bft) 100,00 %
07.10.2016 01:04 7,5 C 96 % 1016,1 hPa 0,0 l/m 6,6 km/h (2 Bft) SW 222 0 min 0,000 mm 0,0 UV-I 0 W/m 6,9 C 7,4 C 11,3 km/h (2 Bft) 100,00 %
07.10.2016 01:06 7,5 C 96 % 1016,1 hPa 0,0 l/m 7,5 km/h (2 Bft) W-SW 252 0 min 0,000 mm 0,0 UV-I 0 W/m 6,9 C 6,6 C 12,9 km/h (3 Bft) 98,21 %
07.10.2016 01:08 7,5 C 96 % 1016,1 hPa 0,2 l/m 6,5 km/h (2 Bft) W-SW 249 0 min 0,000 mm 0,0 UV-I 0 W/m 6,9 C 7,4 C 11,3 km/h (2 Bft) 100,00 %
07.10.2016 01:10 7,5 C 96 % 1016,1 hPa 0,0 l/m 6,5 km/h (2 Bft) W-SW 238 0 min 0,000 mm 0,0 UV-I 0 W/m 6,9 C 7,4 C 9,7 km/h (2 Bft) 100,00 %
07.10.2016 01:12 7,5 C 96 % 1016,1 hPa 0,0 l/m 8,0 km/h (2 Bft) SW 224 0 min 0,000 mm 0,0 UV-I 0 W/m 6,9 C 6,2 C 11,3 km/h (2 Bft) 97,87 %
07.10.2016 01:14 7,4 C 96 % 1016,2 hPa 0,0 l/m 7,7 km/h (2 Bft) SW 226 0 min 0,000 mm 0,0 UV-I 0 W/m 6,8 C 6,4 C 9,7 km/h (2 Bft) 100,00 %
07.10.2016 01:16 7,5 C 96 % 1016,1 hPa 0,0 l/m 6,7 km/h (2 Bft) W-SW 249 0 min 0,000 mm 0,0 UV-I 0 W/m 6,9 C 7,3 C 9,7 km/h (2 Bft) 100,00 %
07.10.2016 01:18 7,5 C 96 % 1016,1 hPa 0,0 l/m 5,1 km/h (1 Bft) SW 236 0 min 0,000 mm 0,0 UV-I 0 W/m 6,9 C 7,5 C 8,0 km/h (2 Bft) 97,73 %
07.10.2016 01:20 7,4 C 97 % 1016,1 hPa 0,0 l/m 7,3 km/h (2 Bft) SW 234 0 min 0,000 mm 0,0 UV-I 0 W/m 7,0 C 6,7 C 14,5 km/h (3 Bft) 97,73 %
07.10.2016 01:22 7,5 C 97 % 1016,1 hPa 0,0 l/m 6,4 km/h (2 Bft) W-SW 248 0 min 0,000 mm 0,0 UV-I 0 W/m 7,1 C 7,5 C 9,7 km/h (2 Bft) 98,11 %
07.10.2016 01:24 7,4 C 97 % 1016,1 hPa 0,0 l/m 7,2 km/h (2 Bft) SW 218 0 min 0,000 mm 0,0 UV-I 0 W/m 7,0 C 6,8 C 11,3 km/h (2 Bft) 97,87 %
07.10.2016 01:26 7,4 C 97 % 1016,1 hPa 0,0 l/m 5,9 km/h (2 Bft) SW 232 0 min 0,000 mm 0,0 UV-I 0 W/m 7,0 C 7,4 C 8,0 km/h (2 Bft) 97,87 %
07.10.2016 01:28 7,4 C 97 % 1016,1 hPa 0,2 l/m 7,0 km/h (2 Bft) W-SW 238 0 min 0,000 mm 0,0 UV-I 0 W/m 7,0 C 6,9 C 11,3 km/h (2 Bft) 95,74 %
07.10.2016 01:30 7,4 C 97 % 1016,1 hPa 0,0 l/m 7,3 km/h (2 Bft) W-SW 240 0 min 0,000 mm 0,0 UV-I 0 W/m 7,0 C 6,7 C 12,9 km/h (3 Bft) 97,30 %
07.10.2016 01:32 7,4 C 97 % 1016,1 hPa 0,0 l/m 7,1 km/h (2 Bft) SW 221 0 min 0,000 mm 0,0 UV-I 0 W/m 7,0 C 6,8 C 11,3 km/h (2 Bft) 98,08 %
07.10.2016 01:34 7,4 C 97 % 1016,1 hPa 0,0 l/m 5,5 km/h (1 Bft) SW 232 0 min 0,000 mm 0,0 UV-I 0 W/m 7,0 C 7,4 C 8,0 km/h (2 Bft) 96,00 %
07.10.2016 01:36 7,4 C 97 % 1016,1 hPa 0,0 l/m 6,6 km/h (2 Bft) W-SW 238 0 min 0,000 mm 0,0 UV-I 0 W/m 7,0 C 7,3 C 9,7 km/h (2 Bft) 98,00 %
07.10.2016 01:38 7,4 C 97 % 1016,1 hPa 0,2 l/m 7,0 km/h (2 Bft) W-SW 239 0 min 0,000 mm 0,0 UV-I 0 W/m 7,0 C 6,9 C 12,9 km/h (3 Bft) 97,87 %
07.10.2016 01:40 7,4 C 97 % 1016,1 hPa 0,0 l/m 5,0 km/h (1 Bft) W-SW 238 0 min 0,000 mm 0,0 UV-I 0 W/m 7,0 C 7,4 C 8,0 km/h (2 Bft) 97,44 %
07.10.2016 01:42 7,4 C 97 % 1016,1 hPa 0,0 l/m 6,1 km/h (2 Bft) SW 224 0 min 0,000 mm 0,0 UV-I 0 W/m 7,0 C 7,4 C 9,7 km/h (2 Bft) 97,87 %
07.10.2016 01:44 7,4 C 97 % 1016,1 hPa 0,2 l/m 5,7 km/h (1 Bft) S-SW 198 0 min 0,000 mm 0,0 UV-I 0 W/m 7,0 C 7,4 C 8,0 km/h (2 Bft) 98,00 %
07.10.2016 01:46 7,4 C 97 % 1016,1 hPa 0,0 l/m 4,2 km/h (1 Bft) S-SW 200 0 min 0,000 mm 0,0 UV-I 0 W/m 7,0 C 7,4 C 6,4 km/h (2 Bft) 96,23 %
07.10.2016 01:48 7,4 C 97 % 1016,1 hPa 0,0 l/m 4,9 km/h (1 Bft) S-SW 207 0 min 0,000 mm 0,0 UV-I 0 W/m 7,0 C 7,4 C 6,4 km/h (2 Bft) 95,12 %
07.10.2016 01:50 7,4 C 97 % 1016,0 hPa 0,0 l/m 6,1 km/h (2 Bft) S-SW 206 0 min 0,000 mm 0,0 UV-I 0 W/m 7,0 C 7,4 C 8,0 km/h (2 Bft) 96,00 %
07.10.2016 01:52 7,4 C 97 % 1016,0 hPa 0,2 l/m 5,2 km/h (1 Bft) S-SW 197 0 min 0,000 mm 0,0 UV-I 0 W/m 7,0 C 7,4 C 8,0 km/h (2 Bft) 97,37 %
07.10.2016 01:54 7,4 C 97 % 1016,0 hPa 0,0 l/m 5,3 km/h (1 Bft) S 190 0 min 0,000 mm 0,0 UV-I 0 W/m 7,0 C 7,4 C 9,7 km/h (2 Bft) 96,00 %
07.10.2016 01:56 7,4 C 97 % 1016,0 hPa 0,0 l/m 5,7 km/h (1 Bft) S-SW 212 0 min 0,000 mm 0,0 UV-I 0 W/m 7,0 C 7,4 C 8,0 km/h (2 Bft) 93,62 %
07.10.2016 01:58 7,4 C 97 % 1016,0 hPa 0,0 l/m 4,8 km/h (1 Bft) SW 217 0 min 0,000 mm 0,0 UV-I 0 W/m 7,0 C 7,4 C 9,7 km/h (2 Bft) 98,00 %
07.10.2016 02:00 7,4 C 97 % 1016,1 hPa 0,0 l/m 6,5 km/h (2 Bft) SW 234 0 min 0,000 mm 0,0 UV-I 0 W/m 7,0 C 7,3 C 9,7 km/h (2 Bft) 100,00 %
07.10.2016 02:02 7,4 C 97 % 1016,0 hPa 0,0 l/m 4,8 km/h (1 Bft) SW 225 0 min 0,000 mm 0,0 UV-I 0 W/m 7,0 C 7,4 C 6,4 km/h (2 Bft) 100,00 %
07.10.2016 02:04 7,4 C 97 % 1016,0 hPa 0,0 l/m 3,5 km/h (1 Bft) S-SW 195 0 min 0,000 mm 0,0 UV-I 0 W/m 7,0 C 7,4 C 4,8 km/h (1 Bft) 98,00 %
07.10.2016 02:06 7,4 C 97 % 1016,0 hPa 0,2 l/m 3,1 km/h (1 Bft) S-SW 200 0 min 0,000 mm 0,0 UV-I 0 W/m 7,0 C 7,4 C 6,4 km/h (2 Bft) 98,11 %
07.10.2016 02:08 7,4 C 97 % 1015,9 hPa 0,0 l/m 2,8 km/h (1 Bft) S-SW 213 0 min 0,000 mm 0,0 UV-I 0 W/m 7,0 C 7,4 C 4,8 km/h (1 Bft) 100,00 %
07.10.2016 02:10 7,4 C 97 % 1015,9 hPa 0,0 l/m 1,8 km/h (1 Bft) S-SW 213 0 min 0,000 mm 0,0 UV-I 0 W/m 7,0 C 7,4 C 3,2 km/h (1 Bft) 100,00 %
07.10.2016 02:12 7,4 C 97 % 1015,9 hPa 0,0 l/m 3,0 km/h (1 Bft) S-SW 213 0 min 0,000 mm 0,0 UV-I 0 W/m 7,0 C 7,4 C 4,8 km/h (1 Bft) 100,00 %
07.10.2016 02:14 7,4 C 97 % 1015,9 hPa 0,0 l/m 1,3 km/h (1 Bft) S-SW 213 0 min 0,000 mm 0,0 UV-I 0 W/m 7,0 C 7,4 C 3,2 km/h (1 Bft) 97,92 %
07.10.2016 02:16 7,4 C 97 % 1015,9 hPa 0,0 l/m 0,6 km/h (0 Bft) S-SW 213 0 min 0,000 mm 0,0 UV-I 0 W/m 7,0 C 7,4 C 1,6 km/h (1 Bft) 100,00 %
07.10.2016 02:18 7,4 C 97 % 1015,9 hPa 0,0 l/m 0,5 km/h (0 Bft) S-SW 213 0 min 0,000 mm 0,0 UV-I 0 W/m 7,0 C 7,4 C 1,6 km/h (1 Bft) 100,00 %
07.10.2016 02:20 7,4 C 97 % 1015,9 hPa 0,0 l/m 1,2 km/h (1 Bft) S-SW 213 0 min 0,000 mm 0,0 UV-I 0 W/m 7,0 C 7,4 C 3,2 km/h (1 Bft) 97,56 %
07.10.2016 02:22 7,4 C 97 % 1015,8 hPa 0,0 l/m 0,3 km/h (0 Bft) S-SW 213 0 min 0,000 mm 0,0 UV-I 0 W/m 7,0 C 7,4 C 1,6 km/h (1 Bft) 100,00 %
07.10.2016 02:24 7,4 C 97 % 1015,8 hPa 0,0 l/m 0,0 km/h (0 Bft) S-SW 213 0 min 0,000 mm 0,0 UV-I 0 W/m 7,0 C 7,4 C 0,0 km/h (0 Bft) 100,00 %
07.10.2016 02:26 7,4 C 97 % 1015,8 hPa 0,0 l/m 0,4 km/h (0 Bft) S-SW 213 0 min 0,000 mm 0,0 UV-I 0 W/m 7,0 C 7,4 C 1,6 km/h (1 Bft) 100,00 %
07.10.2016 02:28 7,4 C 97 % 1015,8 hPa 0,0 l/m 0,0 km/h (0 Bft) S-SW 213 0 min 0,000 mm 0,0 UV-I 0 W/m 7,0 C 7,4 C 1,6 km/h (1 Bft) 100,00 %
07.10.2016 02:30 7,4 C 97 % 1015,8 hPa 0,0 l/m 0,7 km/h (0 Bft) S-SW 213 0 min 0,000 mm 0,0 UV-I 0 W/m 7,0 C 7,4 C 1,6 km/h (1 Bft) 100,00 %
07.10.2016 02:32 7,4 C 97 % 1015,8 hPa 0,0 l/m 0,9 km/h (0 Bft) S-SW 213 0 min 0,000 mm 0,0 UV-I 0 W/m 7,0 C 7,4 C 1,6 km/h (1 Bft) 97,87 %
07.10.2016 02:34 7,4 C 97 % 1015,8 hPa 0,0 l/m 1,3 km/h (1 Bft) S-SW 213 0 min 0,000 mm 0,0 UV-I 0 W/m 7,0 C 7,4 C 3,2 km/h (1 Bft) 100,00 %
07.10.2016 02:36 7,4 C 97 % 1015,7 hPa 0,0 l/m 0,3 km/h (0 Bft) S-SW 213 0 min 0,000 mm 0,0 UV-I 0 W/m 7,0 C 7,4 C 1,6 km/h (1 Bft) 100,00 %
07.10.2016 02:38 7,4 C 97 % 1015,7 hPa 0,0 l/m 1,5 km/h (1 Bft) S-SW 213 0 min 0,000 mm 0,0 UV-I 0 W/m 7,0 C 7,4 C 3,2 km/h (1 Bft) 100,00 %
07.10.2016 02:40 7,4 C 97 % 1015,7 hPa 0,0 l/m 0,4 km/h (0 Bft) S-SW 213 0 min 0,000 mm 0,0 UV-I 0 W/m 7,0 C 7,4 C 1,6 km/h (1 Bft) 100,00 %
07.10.2016 02:42 7,5 C 97 % 1015,7 hPa 0,0 l/m 0,4 km/h (0 Bft) S-SW 213 0 min 0,000 mm 0,0 UV-I 0 W/m 7,1 C 7,5 C 1,6 km/h (1 Bft) 98,00 %
07.10.2016 02:44 7,5 C 97 % 1015,7 hPa 0,0 l/m 0,5 km/h (0 Bft) S-SW 213 0 min 0,000 mm 0,0 UV-I 0 W/m 7,1 C 7,5 C 1,6 km/h (1 Bft) 100,00 %
07.10.2016 02:46 7,5 C 97 % 1015,7 hPa 0,2 l/m 0,0 km/h (0 Bft) S-SW 213 0 min 0,000 mm 0,0 UV-I 0 W/m 7,1 C 7,5 C 0,0 km/h (0 Bft) 95,74 %
07.10.2016 02:48 7,5 C 97 % 1015,7 hPa 0,0 l/m 0,0 km/h (0 Bft) S-SW 213 0 min 0,000 mm 0,0 UV-I 0 W/m 7,1 C 7,5 C 0,0 km/h (0 Bft) 100,00 %
07.10.2016 02:50 7,5 C 97 % 1015,6 hPa 0,0 l/m 0,1 km/h (0 Bft) S-SW 213 0 min 0,000 mm 0,0 UV-I 0 W/m 7,1 C 7,5 C 1,6 km/h (1 Bft) 98,00 %
07.10.2016 02:52 7,5 C 97 % 1015,6 hPa 0,0 l/m 0,1 km/h (0 Bft) S-SW 213 0 min 0,000 mm 0,0 UV-I 0 W/m 7,1 C 7,5 C 1,6 km/h (1 Bft) 100,00 %
07.10.2016 02:54 7,5 C 97 % 1015,5 hPa 0,0 l/m 0,0 km/h (0 Bft) S-SW 213 0 min 0,000 mm 0,0 UV-I 0 W/m 7,1 C 7,5 C 1,6 km/h (1 Bft) 100,00 %
07.10.2016 02:56 7,5 C 97 % 1015,5 hPa 0,0 l/m 0,0 km/h (0 Bft) S-SW 213 0 min 0,000 mm 0,0 UV-I 0 W/m 7,1 C 7,5 C 0,0 km/h (0 Bft) 100,00 %
07.10.2016 02:58 7,5 C 97 % 1015,5 hPa 0,0 l/m 0,0 km/h (0 Bft) S-SW 213 0 min 0,000 mm 0,0 UV-I 0 W/m 7,1 C 7,5 C 0,0 km/h (0 Bft) 100,00 %
07.10.2016 03:00 7,5 C 97 % 1015,5 hPa 0,0 l/m 0,0 km/h (0 Bft) S-SW 213 0 min 0,000 mm 0,0 UV-I 0 W/m 7,1 C 7,5 C 0,0 km/h (0 Bft) 100,00 %
07.10.2016 03:02 7,5 C 97 % 1015,5 hPa 0,0 l/m 0,0 km/h (0 Bft) S-SW 213 0 min 0,000 mm 0,0 UV-I 0 W/m 7,1 C 7,5 C 0,0 km/h (0 Bft) 100,00 %
07.10.2016 03:04 7,5 C 97 % 1015,5 hPa 0,0 l/m 0,0 km/h (0 Bft) S-SW 213 0 min 0,000 mm 0,0 UV-I 0 W/m 7,1 C 7,5 C 1,6 km/h (1 Bft) 98,00 %
07.10.2016 03:06 7,5 C 97 % 1015,5 hPa 0,0 l/m 0,1 km/h (0 Bft) S-SW 213 0 min 0,000 mm 0,0 UV-I 0 W/m 7,1 C 7,5 C 1,6 km/h (1 Bft) 100,00 %
07.10.2016 03:08 7,5 C 97 % 1015,4 hPa 0,0 l/m 1,2 km/h (1 Bft) S-SW 213 0 min 0,000 mm 0,0 UV-I 0 W/m 7,1 C 7,5 C 3,2 km/h (1 Bft) 100,00 %
07.10.2016 03:10 7,5 C 97 % 1015,4 hPa 0,0 l/m 0,1 km/h (0 Bft) S-SW 213 0 min 0,000 mm 0,0 UV-I 0 W/m 7,1 C 7,5 C 1,6 km/h (1 Bft) 98,00 %
07.10.2016 03:12 7,5 C 97 % 1015,3 hPa 0,0 l/m 1,5 km/h (1 Bft) S-SW 213 0 min 0,000 mm 0,0 UV-I 0 W/m 7,1 C 7,5 C 3,2 km/h (1 Bft) 100,00 %
07.10.2016 03:14 7,5 C 97 % 1015,3 hPa 0,0 l/m 1,3 km/h (1 Bft) S-SW 213 0 min 0,000 mm 0,0 UV-I 0 W/m 7,1 C 7,5 C 3,2 km/h (1 Bft) 100,00 %
07.10.2016 03:16 7,5 C 97 % 1015,3 hPa 0,0 l/m 1,4 km/h (1 Bft) S-SW 213 0 min 0,000 mm 0,0 UV-I 0 W/m 7,1 C 7,5 C 4,8 km/h (1 Bft) 95,74 %
07.10.2016 03:18 7,5 C 97 % 1015,3 hPa 0,0 l/m 2,4 km/h (1 Bft) S-SW 213 0 min 0,000 mm 0,0 UV-I 0 W/m 7,1 C 7,5 C 4,8 km/h (1 Bft) 100,00 %
07.10.2016 03:20 7,5 C 97 % 1015,3 hPa 0,0 l/m 0,8 km/h (0 Bft) S-SW 213 0 min 0,000 mm 0,0 UV-I 0 W/m 7,1 C 7,5 C 3,2 km/h (1 Bft) 100,00 %
07.10.2016 03:22 7,6 C 97 % 1015,3 hPa 0,0 l/m 1,7 km/h (1 Bft) S-SW 213 0 min 0,000 mm 0,0 UV-I 0 W/m 7,2 C 7,6 C 3,2 km/h (1 Bft) 100,00 %
07.10.2016 03:24 7,6 C 97 % 1015,3 hPa 0,0 l/m 2,4 km/h (1 Bft) S-SW 197 0 min 0,000 mm 0,0 UV-I 0 W/m 7,2 C 7,6 C 4,8 km/h (1 Bft) 95,74 %
07.10.2016 03:26 7,6 C 97 % 1015,3 hPa 0,2 l/m 1,8 km/h (1 Bft) S-SW 197 0 min 0,000 mm 0,0 UV-I 0 W/m 7,2 C 7,6 C 3,2 km/h (1 Bft) 98,00 %
07.10.2016 03:28 7,6 C 97 % 1015,3 hPa 0,0 l/m 4,1 km/h (1 Bft) SW 218 0 min 0,000 mm 0,0 UV-I 0 W/m 7,2 C 7,6 C 6,4 km/h (2 Bft) 98,00 %
07.10.2016 03:30 7,6 C 97 % 1015,3 hPa 0,0 l/m 2,7 km/h (1 Bft) SW 227 0 min 0,000 mm 0,0 UV-I 0 W/m 7,2 C 7,6 C 4,8 km/h (1 Bft) 94,00 %
07.10.2016 03:32 7,6 C 97 % 1015,3 hPa 0,0 l/m 3,1 km/h (1 Bft) S-SW 192 0 min 0,000 mm 0,0 UV-I 0 W/m 7,2 C 7,6 C 6,4 km/h (2 Bft) 94,44 %
07.10.2016 03:34 7,5 C 97 % 1015,3 hPa 0,0 l/m 3,2 km/h (1 Bft) S 185 0 min 0,000 mm 0,0 UV-I 0 W/m 7,1 C 7,5 C 4,8 km/h (1 Bft) 94,83 %
07.10.2016 03:36 7,6 C 97 % 1015,3 hPa 0,0 l/m 2,7 km/h (1 Bft) S 185 0 min 0,000 mm 0,0 UV-I 0 W/m 7,2 C 7,6 C 4,8 km/h (1 Bft) 93,62 %
07.10.2016 03:38 7,6 C 97 % 1015,3 hPa 0,0 l/m 2,6 km/h (1 Bft) S 189 0 min 0,000 mm 0,0 UV-I 0 W/m 7,2 C 7,6 C 4,8 km/h (1 Bft) 97,22 %
07.10.2016 03:40 7,6 C 97 % 1015,3 hPa 0,0 l/m 3,3 km/h (1 Bft) S 189 0 min 0,000 mm 0,0 UV-I 0 W/m 7,2 C 7,6 C 4,8 km/h (1 Bft) 96,00 %
07.10.2016 03:42 7,6 C 97 % 1015,3 hPa 0,0 l/m 3,3 km/h (1 Bft) S 190 0 min 0,000 mm 0,0 UV-I 0 W/m 7,2 C 7,6 C 4,8 km/h (1 Bft) 97,56 %
07.10.2016 03:44 7,6 C 97 % 1015,3 hPa 0,0 l/m 3,2 km/h (1 Bft) SW 219 0 min 0,000 mm 0,0 UV-I 0 W/m 7,2 C 7,6 C 4,8 km/h (1 Bft) 98,11 %
07.10.2016 03:46 7,6 C 97 % 1015,3 hPa 0,0 l/m 3,0 km/h (1 Bft) S 184 0 min 0,000 mm 0,0 UV-I 0 W/m 7,2 C 7,6 C 6,4 km/h (2 Bft) 97,87 %
07.10.2016 03:48 7,6 C 97 % 1015,3 hPa 0,0 l/m 2,8 km/h (1 Bft) S 184 0 min 0,000 mm 0,0 UV-I 0 W/m 7,2 C 7,6 C 4,8 km/h (1 Bft) 98,11 %
07.10.2016 03:50 7,6 C 97 % 1015,3 hPa 0,0 l/m 4,0 km/h (1 Bft) S-SW 207 0 min 0,000 mm 0,0 UV-I 0 W/m 7,2 C 7,6 C 6,4 km/h (2 Bft) 97,37 %
07.10.2016 03:52 7,6 C 97 % 1015,3 hPa 0,0 l/m 2,2 km/h (1 Bft) S-SW 207 0 min 0,000 mm 0,0 UV-I 0 W/m 7,2 C 7,6 C 3,2 km/h (1 Bft) 97,87 %
07.10.2016 03:54 7,6 C 97 % 1015,4 hPa 0,0 l/m 1,4 km/h (1 Bft) S-SW 207 0 min 0,000 mm 0,0 UV-I 0 W/m 7,2 C 7,6 C 3,2 km/h (1 Bft) 96,00 %
07.10.2016 03:56 7,6 C 97 % 1015,4 hPa 0,0 l/m 3,2 km/h (1 Bft) S-SW 211 0 min 0,000 mm 0,0 UV-I 0 W/m 7,2 C 7,6 C 4,8 km/h (1 Bft) 100,00 %
07.10.2016 03:58 7,6 C 97 % 1015,3 hPa 0,0 l/m 2,5 km/h (1 Bft) S-SW 211 0 min 0,000 mm 0,0 UV-I 0 W/m 7,2 C 7,6 C 3,2 km/h (1 Bft) 100,00 %
07.10.2016 04:00 7,6 C 97 % 1015,3 hPa 0,0 l/m 2,7 km/h (1 Bft) S-SW 211 0 min 0,000 mm 0,0 UV-I 0 W/m 7,2 C 7,6 C 4,8 km/h (1 Bft) 100,00 %
07.10.2016 04:02 7,6 C 97 % 1015,3 hPa 0,0 l/m 3,2 km/h (1 Bft) S-SW 211 0 min 0,000 mm 0,0 UV-I 0 W/m 7,2 C 7,6 C 3,2 km/h (1 Bft) 100,00 %
07.10.2016 04:04 7,6 C 97 % 1015,3 hPa 0,0 l/m 2,0 km/h (1 Bft) S-SW 211 0 min 0,000 mm 0,0 UV-I 0 W/m 7,2 C 7,6 C 3,2 km/h (1 Bft) 97,37 %
07.10.2016 04:06 7,6 C 97 % 1015,2 hPa 0,0 l/m 2,8 km/h (1 Bft) S-SW 211 0 min 0,000 mm 0,0 UV-I 0 W/m 7,2 C 7,6 C 3,2 km/h (1 Bft) 98,00 %
07.10.2016 04:08 7,6 C 97 % 1015,2 hPa 0,0 l/m 2,2 km/h (1 Bft) S-SW 211 0 min 0,000 mm 0,0 UV-I 0 W/m 7,2 C 7,6 C 3,2 km/h (1 Bft) 100,00 %
07.10.2016 04:10 7,6 C 97 % 1015,2 hPa 0,0 l/m 1,7 km/h (1 Bft) S-SW 211 0 min 0,000 mm 0,0 UV-I 0 W/m 7,2 C 7,6 C 4,8 km/h (1 Bft) 100,00 %
07.10.2016 04:12 7,6 C 97 % 1015,2 hPa 0,0 l/m 2,6 km/h (1 Bft) S-SW 211 0 min 0,000 mm 0,0 UV-I 0 W/m 7,2 C 7,6 C 4,8 km/h (1 Bft) 97,96 %
07.10.2016 04:14 7,6 C 97 % 1015,3 hPa 0,0 l/m 1,9 km/h (1 Bft) S-SW 211 0 min 0,000 mm 0,0 UV-I 0 W/m 7,2 C 7,6 C 3,2 km/h (1 Bft) 96,00 %
07.10.2016 04:16 7,6 C 97 % 1015,3 hPa 0,0 l/m 1,8 km/h (1 Bft) S-SW 211 0 min 0,000 mm 0,0 UV-I 0 W/m 7,2 C 7,6 C 4,8 km/h (1 Bft) 97,62 %
07.10.2016 04:18 7,6 C 97 % 1015,3 hPa 0,0 l/m 2,5 km/h (1 Bft) S-SW 211 0 min 0,000 mm 0,0 UV-I 0 W/m 7,2 C 7,6 C 4,8 km/h (1 Bft) 100,00 %
07.10.2016 04:20 7,6 C 97 % 1015,2 hPa 0,0 l/m 1,6 km/h (1 Bft) S-SW 211 0 min 0,000 mm 0,0 UV-I 0 W/m 7,2 C 7,6 C 3,2 km/h (1 Bft) 97,87 %
07.10.2016 04:22 7,6 C 97 % 1015,3 hPa 0,0 l/m 0,8 km/h (0 Bft) S-SW 211 0 min 0,000 mm 0,0 UV-I 0 W/m 7,2 C 7,6 C 1,6 km/h (1 Bft) 100,00 %
07.10.2016 04:24 7,6 C 97 % 1015,3 hPa 0,0 l/m 0,0 km/h (0 Bft) S-SW 211 0 min 0,000 mm 0,0 UV-I 0 W/m 7,2 C 7,6 C 0,0 km/h (0 Bft) 100,00 %
07.10.2016 04:26 7,6 C 97 % 1015,3 hPa 0,0 l/m 0,4 km/h (0 Bft) S-SW 211 0 min 0,000 mm 0,0 UV-I 0 W/m 7,2 C 7,6 C 1,6 km/h (1 Bft) 100,00 %
07.10.2016 04:28 7,6 C 97 % 1015,2 hPa 0,0 l/m 0,1 km/h (0 Bft) S-SW 211 0 min 0,000 mm 0,0 UV-I 0 W/m 7,2 C 7,6 C 1,6 km/h (1 Bft) 100,00 %
07.10.2016 04:30 7,6 C 97 % 1015,2 hPa 0,0 l/m 0,4 km/h (0 Bft) S-SW 211 0 min 0,000 mm 0,0 UV-I 0 W/m 7,2 C 7,6 C 1,6 km/h (1 Bft) 100,00 %
07.10.2016 04:32 7,6 C 97 % 1015,2 hPa 0,0 l/m 1,2 km/h (1 Bft) S-SW 211 0 min 0,000 mm 0,0 UV-I 0 W/m 7,2 C 7,6 C 1,6 km/h (1 Bft) 100,00 %
07.10.2016 04:34 7,6 C 97 % 1015,2 hPa 0,0 l/m 1,0 km/h (0 Bft) S-SW 211 0 min 0,000 mm 0,0 UV-I 0 W/m 7,2 C 7,6 C 1,6 km/h (1 Bft) 100,00 %
07.10.2016 04:36 7,6 C 97 % 1015,2 hPa 0,0 l/m 0,4 km/h (0 Bft) S-SW 211 0 min 0,000 mm 0,0 UV-I 0 W/m 7,2 C 7,6 C 1,6 km/h (1 Bft) 100,00 %
07.10.2016 04:38 7,6 C 97 % 1015,2 hPa 0,2 l/m 0,1 km/h (0 Bft) S-SW 211 0 min 0,000 mm 0,0 UV-I 0 W/m 7,2 C 7,6 C 1,6 km/h (1 Bft) 100,00 %
07.10.2016 04:40 7,6 C 97 % 1015,2 hPa 0,0 l/m 1,2 km/h (1 Bft) S-SW 211 0 min 0,000 mm 0,0 UV-I 0 W/m 7,2 C 7,6 C 1,6 km/h (1 Bft) 100,00 %
07.10.2016 04:42 7,6 C 97 % 1015,2 hPa 0,0 l/m 0,6 km/h (0 Bft) S-SW 211 0 min 0,000 mm 0,0 UV-I 0 W/m 7,2 C 7,6 C 3,2 km/h (1 Bft) 100,00 %
07.10.2016 04:44 7,6 C 97 % 1015,2 hPa 0,0 l/m 0,0 km/h (0 Bft) S-SW 211 0 min 0,000 mm 0,0 UV-I 0 W/m 7,2 C 7,6 C 0,0 km/h (0 Bft) 100,00 %
07.10.2016 04:46 7,6 C 97 % 1015,2 hPa 0,0 l/m 0,0 km/h (0 Bft) S-SW 211 0 min 0,000 mm 0,0 UV-I 0 W/m 7,2 C 7,6 C 0,0 km/h (0 Bft) 100,00 %
07.10.2016 04:48 7,6 C 97 % 1015,2 hPa 0,0 l/m 0,0 km/h (0 Bft) S-SW 211 0 min 0,000 mm 0,0 UV-I 0 W/m 7,2 C 7,6 C 0,0 km/h (0 Bft) 97,87 %
07.10.2016 04:50 7,6 C 97 % 1015,1 hPa 0,0 l/m 0,0 km/h (0 Bft) S-SW 211 0 min 0,000 mm 0,0 UV-I 0 W/m 7,2 C 7,6 C 0,0 km/h (0 Bft) 100,00 %
07.10.2016 04:52 7,6 C 97 % 1015,2 hPa 0,0 l/m 0,0 km/h (0 Bft) S-SW 211 0 min 0,000 mm 0,0 UV-I 0 W/m 7,2 C 7,6 C 0,0 km/h (0 Bft) 100,00 %
07.10.2016 04:54 7,6 C 97 % 1015,1 hPa 0,0 l/m 1,3 km/h (1 Bft) S-SW 211 0 min 0,000 mm 0,0 UV-I 0 W/m 7,2 C 7,6 C 3,2 km/h (1 Bft) 100,00 %
07.10.2016 04:56 7,6 C 97 % 1015,2 hPa 0,0 l/m 0,8 km/h (0 Bft) S-SW 211 0 min 0,000 mm 0,0 UV-I 0 W/m 7,2 C 7,6 C 1,6 km/h (1 Bft) 97,92 %
07.10.2016 04:58 7,6 C 97 % 1015,2 hPa 0,0 l/m 0,6 km/h (0 Bft) S-SW 211 0 min 0,000 mm 0,0 UV-I 0 W/m 7,2 C 7,6 C 1,6 km/h (1 Bft) 100,00 %
07.10.2016 05:00 7,6 C 97 % 1015,2 hPa 0,0 l/m 0,5 km/h (0 Bft) S-SW 211 0 min 0,000 mm 0,0 UV-I 0 W/m 7,2 C 7,6 C 1,6 km/h (1 Bft) 100,00 %
07.10.2016 05:02 7,6 C 97 % 1015,1 hPa 0,0 l/m 0,3 km/h (0 Bft) S-SW 211 0 min 0,000 mm 0,0 UV-I 0 W/m 7,2 C 7,6 C 1,6 km/h (1 Bft) 97,87 %
07.10.2016 05:04 7,6 C 97 % 1015,2 hPa 0,0 l/m 0,7 km/h (0 Bft) S-SW 211 0 min 0,000 mm 0,0 UV-I 0 W/m 7,2 C 7,6 C 1,6 km/h (1 Bft) 100,00 %
07.10.2016 05:06 7,6 C 97 % 1015,2 hPa 0,0 l/m 0,0 km/h (0 Bft) S-SW 211 0 min 0,000 mm 0,0 UV-I 0 W/m 7,2 C 7,6 C 0,0 km/h (0 Bft) 96,00 %
07.10.2016 05:08 7,6 C 97 % 1015,1 hPa 0,0 l/m 1,0 km/h (0 Bft) S-SW 211 0 min 0,000 mm 0,0 UV-I 0 W/m 7,2 C 7,6 C 1,6 km/h (1 Bft) 100,00 %
07.10.2016 05:10 7,6 C 97 % 1015,2 hPa 0,0 l/m 1,3 km/h (1 Bft) S-SW 211 0 min 0,000 mm 0,0 UV-I 0 W/m 7,2 C 7,6 C 3,2 km/h (1 Bft) 100,00 %
07.10.2016 05:12 7,6 C 97 % 1015,1 hPa 0,0 l/m 1,4 km/h (1 Bft) S-SW 211 0 min 0,000 mm 0,0 UV-I 0 W/m 7,2 C 7,6 C 3,2 km/h (1 Bft) 98,00 %
07.10.2016 05:14 7,6 C 97 % 1015,2 hPa 0,0 l/m 2,2 km/h (1 Bft) W-SW 257 0 min 0,000 mm 0,0 UV-I 0 W/m 7,2 C 7,6 C 4,8 km/h (1 Bft) 100,00 %
07.10.2016 05:16 7,6 C 97 % 1015,2 hPa 0,0 l/m 3,1 km/h (1 Bft) W 281 0 min 0,000 mm 0,0 UV-I 0 W/m 7,2 C 7,6 C 4,8 km/h (1 Bft) 97,87 %
07.10.2016 05:18 7,6 C 97 % 1015,2 hPa 0,2 l/m 3,5 km/h (1 Bft) W-SW 250 0 min 0,000 mm 0,0 UV-I 0 W/m 7,2 C 7,6 C 4,8 km/h (1 Bft) 100,00 %
07.10.2016 05:20 7,6 C 97 % 1015,2 hPa 0,0 l/m 3,9 km/h (1 Bft) W-SW 244 0 min 0,000 mm 0,0 UV-I 0 W/m 7,2 C 7,6 C 6,4 km/h (2 Bft) 97,37 %
07.10.2016 05:22 7,6 C 97 % 1015,3 hPa 0,0 l/m 3,0 km/h (1 Bft) W-SW 246 0 min 0,000 mm 0,0 UV-I 0 W/m 7,2 C 7,6 C 6,4 km/h (2 Bft) 100,00 %
07.10.2016 05:24 7,6 C 97 % 1015,2 hPa 0,0 l/m 3,6 km/h (1 Bft) W-SW 253 0 min 0,000 mm 0,0 UV-I 0 W/m 7,2 C 7,6 C 6,4 km/h (2 Bft) 98,08 %
07.10.2016 05:26 7,6 C 97 % 1015,2 hPa 0,0 l/m 4,0 km/h (1 Bft) W-SW 241 0 min 0,000 mm 0,0 UV-I 0 W/m 7,2 C 7,6 C 6,4 km/h (2 Bft) 94,74 %
07.10.2016 05:28 7,6 C 97 % 1015,2 hPa 0,0 l/m 4,6 km/h (1 Bft) SW 221 0 min 0,000 mm 0,0 UV-I 0 W/m 7,2 C 7,6 C 6,4 km/h (2 Bft) 98,00 %
07.10.2016 05:30 7,6 C 97 % 1015,2 hPa 0,0 l/m 4,5 km/h (1 Bft) SW 223 0 min 0,000 mm 0,0 UV-I 0 W/m 7,2 C 7,6 C 6,4 km/h (2 Bft) 97,87 %
07.10.2016 05:32 7,6 C 97 % 1015,2 hPa 0,0 l/m 4,0 km/h (1 Bft) W-SW 239 0 min 0,000 mm 0,0 UV-I 0 W/m 7,2 C 7,6 C 6,4 km/h (2 Bft) 97,62 %
07.10.2016 05:34 7,6 C 97 % 1015,2 hPa 0,0 l/m 4,3 km/h (1 Bft) SW 224 0 min 0,000 mm 0,0 UV-I 0 W/m 7,2 C 7,6 C 6,4 km/h (2 Bft) 98,11 %
07.10.2016 05:36 7,6 C 97 % 1015,2 hPa 0,0 l/m 3,3 km/h (1 Bft) S-SW 211 0 min 0,000 mm 0,0 UV-I 0 W/m 7,2 C 7,6 C 4,8 km/h (1 Bft) 95,74 %
07.10.2016 05:38 7,6 C 97 % 1015,2 hPa 0,0 l/m 2,8 km/h (1 Bft) S-SW 209 0 min 0,000 mm 0,0 UV-I 0 W/m 7,2 C 7,6 C 4,8 km/h (1 Bft) 95,74 %
07.10.2016 05:40 7,6 C 97 % 1015,3 hPa 0,0 l/m 2,9 km/h (1 Bft) SW 229 0 min 0,000 mm 0,0 UV-I 0 W/m 7,2 C 7,6 C 4,8 km/h (1 Bft) 98,00 %
07.10.2016 05:42 7,6 C 97 % 1015,2 hPa 0,0 l/m 3,5 km/h (1 Bft) SW 229 0 min 0,000 mm 0,0 UV-I 0 W/m 7,2 C 7,6 C 4,8 km/h (1 Bft) 97,37 %
07.10.2016 05:44 7,6 C 97 % 1015,2 hPa 0,0 l/m 3,5 km/h (1 Bft) SW 227 0 min 0,000 mm 0,0 UV-I 0 W/m 7,2 C 7,6 C 4,8 km/h (1 Bft) 98,00 %
07.10.2016 05:46 7,6 C 97 % 1015,3 hPa 0,0 l/m 3,2 km/h (1 Bft) SW 226 0 min 0,000 mm 0,0 UV-I 0 W/m 7,2 C 7,6 C 6,4 km/h (2 Bft) 98,11 %
07.10.2016 05:48 7,6 C 97 % 1015,3 hPa 0,0 l/m 2,9 km/h (1 Bft) SW 226 0 min 0,000 mm 0,0 UV-I 0 W/m 7,2 C 7,6 C 4,8 km/h (1 Bft) 97,37 %
07.10.2016 05:50 7,6 C 97 % 1015,2 hPa 0,0 l/m 2,2 km/h (1 Bft) S-SW 208 0 min 0,000 mm 0,0 UV-I 0 W/m 7,2 C 7,6 C 6,4 km/h (2 Bft) 97,87 %
07.10.2016 05:52 7,6 C 97 % 1015,3 hPa 0,0 l/m 2,7 km/h (1 Bft) S-SW 202 0 min 0,000 mm 0,0 UV-I 0 W/m 7,2 C 7,6 C 6,4 km/h (2 Bft) 95,74 %
07.10.2016 05:54 7,6 C 97 % 1015,3 hPa 0,0 l/m 3,1 km/h (1 Bft) S-SW 211 0 min 0,000 mm 0,0 UV-I 0 W/m 7,2 C 7,6 C 4,8 km/h (1 Bft) 96,49 %
07.10.2016 05:56 7,6 C 97 % 1015,3 hPa 0,0 l/m 2,0 km/h (1 Bft) SW 224 0 min 0,000 mm 0,0 UV-I 0 W/m 7,2 C 7,6 C 4,8 km/h (1 Bft) 97,37 %
07.10.2016 05:58 7,6 C 97 % 1015,3 hPa 0,0 l/m 2,9 km/h (1 Bft) SW 224 0 min 0,000 mm 0,0 UV-I 0 W/m 7,2 C 7,6 C 4,8 km/h (1 Bft) 95,74 %
07.10.2016 06:00 7,6 C 97 % 1015,3 hPa 0,0 l/m 2,7 km/h (1 Bft) SW 224 0 min 0,000 mm 0,0 UV-I 0 W/m 7,2 C 7,6 C 4,8 km/h (1 Bft) 98,11 %
07.10.2016 06:02 7,6 C 97 % 1015,3 hPa 0,0 l/m 3,4 km/h (1 Bft) SW 224 0 min 0,000 mm 0,0 UV-I 0 W/m 7,2 C 7,6 C 4,8 km/h (1 Bft) 100,00 %
07.10.2016 06:04 7,6 C 97 % 1015,3 hPa 0,0 l/m 4,0 km/h (1 Bft) SW 221 0 min 0,000 mm 0,0 UV-I 0 W/m 7,2 C 7,6 C 6,4 km/h (2 Bft) 98,00 %
07.10.2016 06:06 7,6 C 97 % 1015,3 hPa 0,0 l/m 3,8 km/h (1 Bft) SW 226 0 min 0,000 mm 0,0 UV-I 0 W/m 7,2 C 7,6 C 4,8 km/h (1 Bft) 100,00 %
07.10.2016 06:08 7,6 C 97 % 1015,3 hPa 0,0 l/m 3,3 km/h (1 Bft) SW 221 0 min 0,000 mm 0,0 UV-I 0 W/m 7,2 C 7,6 C 6,4 km/h (2 Bft) 97,56 %
07.10.2016 06:10 7,6 C 97 % 1015,3 hPa 0,0 l/m 2,2 km/h (1 Bft) SW 221 0 min 0,000 mm 0,0 UV-I 0 W/m 7,2 C 7,6 C 3,2 km/h (1 Bft) 100,00 %
07.10.2016 06:12 7,6 C 97 % 1015,3 hPa 0,0 l/m 2,5 km/h (1 Bft) SW 221 0 min 0,000 mm 0,0 UV-I 0 W/m 7,2 C 7,6 C 4,8 km/h (1 Bft) 98,00 %
07.10.2016 06:14 7,6 C 97 % 1015,3 hPa 0,2 l/m 2,5 km/h (1 Bft) SW 221 0 min 0,000 mm 0,0 UV-I 0 W/m 7,2 C 7,6 C 4,8 km/h (1 Bft) 100,00 %
07.10.2016 06:16 7,6 C 97 % 1015,3 hPa 0,0 l/m 2,4 km/h (1 Bft) SW 220 0 min 0,000 mm 0,0 UV-I 0 W/m 7,2 C 7,6 C 4,8 km/h (1 Bft) 100,00 %
07.10.2016 06:18 7,6 C 97 % 1015,3 hPa 0,0 l/m 1,7 km/h (1 Bft) SW 220 0 min 0,000 mm 0,0 UV-I 0 W/m 7,2 C 7,6 C 3,2 km/h (1 Bft) 100,00 %
07.10.2016 06:20 7,6 C 97 % 1015,4 hPa 0,0 l/m 1,3 km/h (1 Bft) SW 220 0 min 0,000 mm 0,0 UV-I 0 W/m 7,2 C 7,6 C 3,2 km/h (1 Bft) 100,00 %
07.10.2016 06:22 7,6 C 97 % 1015,4 hPa 0,0 l/m 2,0 km/h (1 Bft) SW 225 0 min 0,000 mm 0,0 UV-I 0 W/m 7,2 C 7,6 C 3,2 km/h (1 Bft) 100,00 %
07.10.2016 06:24 7,6 C 97 % 1015,4 hPa 0,0 l/m 1,3 km/h (1 Bft) SW 225 0 min 0,000 mm 0,0 UV-I 0 W/m 7,2 C 7,6 C 3,2 km/h (1 Bft) 97,87 %
07.10.2016 06:26 7,6 C 97 % 1015,4 hPa 0,0 l/m 1,5 km/h (1 Bft) SW 225 0 min 0,000 mm 0,0 UV-I 0 W/m 7,2 C 7,6 C 3,2 km/h (1 Bft) 100,00 %
07.10.2016 06:28 7,6 C 97 % 1015,4 hPa 0,0 l/m 1,2 km/h (1 Bft) N-NW 336 0 min 0,000 mm 0,0 UV-I 0 W/m 7,2 C 7,6 C 3,2 km/h (1 Bft) 100,00 %
07.10.2016 06:30 7,6 C 97 % 1015,4 hPa 0,0 l/m 0,7 km/h (0 Bft) N-NW 336 0 min 0,000 mm 0,0 UV-I 0 W/m 7,2 C 7,6 C 3,2 km/h (1 Bft) 98,11 %
07.10.2016 06:32 7,6 C 97 % 1015,4 hPa 0,0 l/m 1,0 km/h (0 Bft) N-NW 336 0 min 0,000 mm 0,0 UV-I 0 W/m 7,2 C 7,6 C 3,2 km/h (1 Bft) 97,37 %
07.10.2016 06:34 7,6 C 97 % 1015,4 hPa 0,0 l/m 3,6 km/h (1 Bft) N-NO 17 0 min 0,000 mm 0,0 UV-I 0 W/m 7,2 C 7,6 C 6,4 km/h (2 Bft) 100,00 %
07.10.2016 06:36 7,6 C 97 % 1015,5 hPa 0,0 l/m 2,8 km/h (1 Bft) N-NW 334 0 min 0,000 mm 0,0 UV-I 0 W/m 7,2 C 7,6 C 6,4 km/h (2 Bft) 98,00 %
07.10.2016 06:38 7,6 C 97 % 1015,5 hPa 0,0 l/m 0,3 km/h (0 Bft) N-NW 334 0 min 0,000 mm 0,0 UV-I 0 W/m 7,2 C 7,6 C 1,6 km/h (1 Bft) 100,00 %
07.10.2016 06:40 7,6 C 97 % 1015,5 hPa 0,0 l/m 1,0 km/h (0 Bft) N 349 0 min 0,000 mm 0,0 UV-I 0 W/m 7,2 C 7,6 C 3,2 km/h (1 Bft) 100,00 %
07.10.2016 06:42 7,6 C 97 % 1015,5 hPa 0,0 l/m 3,5 km/h (1 Bft) N-NO 32 0 min 0,000 mm 0,0 UV-I 0 W/m 7,2 C 7,6 C 4,8 km/h (1 Bft) 100,00 %
07.10.2016 06:44 7,6 C 97 % 1015,5 hPa 0,0 l/m 5,4 km/h (1 Bft) N 5 0 min 0,000 mm 0,0 UV-I 0 W/m 7,2 C 7,6 C 6,4 km/h (2 Bft) 100,00 %
07.10.2016 06:46 7,6 C 97 % 1015,5 hPa 0,0 l/m 5,7 km/h (1 Bft) NO 43 0 min 0,000 mm 0,0 UV-I 0 W/m 7,2 C 7,6 C 8,0 km/h (2 Bft) 100,00 %
07.10.2016 06:48 7,4 C 97 % 1015,5 hPa 0,0 l/m 7,0 km/h (2 Bft) O-NO 73 0 min 0,000 mm 0,0 UV-I 0 W/m 7,0 C 6,9 C 11,3 km/h (2 Bft) 100,00 %
07.10.2016 06:50 7,3 C 96 % 1015,5 hPa 0,2 l/m 6,9 km/h (2 Bft) NO 49 0 min 0,000 mm 0,0 UV-I 0 W/m 6,7 C 6,9 C 9,7 km/h (2 Bft) 100,00 %
07.10.2016 06:52 7,3 C 96 % 1015,5 hPa 0,0 l/m 5,5 km/h (1 Bft) NO 52 0 min 0,000 mm 0,0 UV-I 0 W/m 6,7 C 7,3 C 9,7 km/h (2 Bft) 97,87 %
07.10.2016 06:54 7,2 C 96 % 1015,5 hPa 0,0 l/m 3,7 km/h (1 Bft) O-NO 57 0 min 0,000 mm 0,0 UV-I 0 W/m 6,6 C 7,2 C 4,8 km/h (1 Bft) 100,00 %
07.10.2016 06:56 7,2 C 96 % 1015,5 hPa 0,0 l/m 5,0 km/h (1 Bft) O-NO 59 0 min 0,000 mm 0,0 UV-I 0 W/m 6,6 C 7,2 C 8,0 km/h (2 Bft) 100,00 %
07.10.2016 06:58 7,2 C 96 % 1015,5 hPa 0,2 l/m 4,3 km/h (1 Bft) NO 42 0 min 0,000 mm 0,0 UV-I 0 W/m 6,6 C 7,2 C 6,4 km/h (2 Bft) 100,00 %
07.10.2016 07:00 7,2 C 96 % 1015,5 hPa 0,0 l/m 4,3 km/h (1 Bft) NO 55 0 min 0,000 mm 0,0 UV-I 0 W/m 6,6 C 7,2 C 6,4 km/h (2 Bft) 100,00 %
07.10.2016 07:02 7,2 C 96 % 1015,5 hPa 0,0 l/m 5,4 km/h (1 Bft) O-NO 63 0 min 0,000 mm 0,0 UV-I 0 W/m 6,6 C 7,2 C 8,0 km/h (2 Bft) 100,00 %
07.10.2016 07:04 7,2 C 96 % 1015,5 hPa 0,0 l/m 4,4 km/h (1 Bft) NO 42 0 min 0,000 mm 0,0 UV-I 0 W/m 6,6 C 7,2 C 6,4 km/h (2 Bft) 100,00 %
07.10.2016 07:06 7,2 C 96 % 1015,5 hPa 0,0 l/m 3,8 km/h (1 Bft) NO 43 0 min 0,000 mm 0,0 UV-I 0 W/m 6,6 C 7,2 C 4,8 km/h (1 Bft) 100,00 %
07.10.2016 07:08 7,2 C 96 % 1015,5 hPa 0,0 l/m 4,3 km/h (1 Bft) NO 53 0 min 0,000 mm 0,0 UV-I 0 W/m 6,6 C 7,2 C 6,4 km/h (2 Bft) 98,00 %
07.10.2016 07:10 7,2 C 96 % 1015,6 hPa 0,0 l/m 3,3 km/h (1 Bft) O-NO 65 0 min 0,000 mm 0,0 UV-I 0 W/m 6,6 C 7,2 C 4,8 km/h (1 Bft) 100,00 %
07.10.2016 07:12 7,2 C 96 % 1015,6 hPa 0,0 l/m 4,4 km/h (1 Bft) O-NO 61 0 min 0,000 mm 0,0 UV-I 0 W/m 6,6 C 7,2 C 6,4 km/h (2 Bft) 100,00 %
07.10.2016 07:14 7,2 C 96 % 1015,6 hPa 0,0 l/m 3,6 km/h (1 Bft) O-NO 61 0 min 0,000 mm 0,0 UV-I 0 W/m 6,6 C 7,2 C 4,8 km/h (1 Bft) 97,14 %
07.10.2016 07:16 7,2 C 96 % 1015,6 hPa 0,0 l/m 3,4 km/h (1 Bft) O-NO 61 0 min 0,000 mm 0,0 UV-I 0 W/m 6,6 C 7,2 C 4,8 km/h (1 Bft) 100,00 %
07.10.2016 07:18 7,2 C 96 % 1015,6 hPa 0,0 l/m 2,8 km/h (1 Bft) O-NO 61 0 min 0,000 mm 0,0 UV-I 0 W/m 6,6 C 7,2 C 4,8 km/h (1 Bft) 100,00 %
07.10.2016 07:20 7,2 C 96 % 1015,6 hPa 0,0 l/m 2,9 km/h (1 Bft) O-NO 61 0 min 0,000 mm 0,0 UV-I 0 W/m 6,6 C 7,2 C 4,8 km/h (1 Bft) 97,87 %
07.10.2016 07:22 7,2 C 96 % 1015,6 hPa 0,0 l/m 2,9 km/h (1 Bft) O-NO 61 0 min 0,000 mm 0,0 UV-I 0 W/m 6,6 C 7,2 C 3,2 km/h (1 Bft) 100,00 %
07.10.2016 07:24 7,2 C 96 % 1015,6 hPa 0,0 l/m 1,3 km/h (1 Bft) O-NO 61 0 min 0,000 mm 0,0 UV-I 0 W/m 6,6 C 7,2 C 3,2 km/h (1 Bft) 98,00 %
07.10.2016 07:26 7,2 C 97 % 1015,6 hPa 0,0 l/m 0,5 km/h (0 Bft) O-NO 61 0 min 0,000 mm 0,0 UV-I 0 W/m 6,8 C 7,2 C 1,6 km/h (1 Bft) 98,00 %
07.10.2016 07:28 7,2 C 97 % 1015,7 hPa 0,0 l/m 0,0 km/h (0 Bft) O-NO 61 0 min 0,000 mm 0,0 UV-I 0 W/m 6,8 C 7,2 C 1,6 km/h (1 Bft) 97,44 %
07.10.2016 07:30 7,2 C 97 % 1015,6 hPa 0,2 l/m 0,9 km/h (0 Bft) O-NO 61 0 min 0,000 mm 0,0 UV-I 0 W/m 6,8 C 7,2 C 1,6 km/h (1 Bft) 98,08 %
07.10.2016 07:32 7,2 C 97 % 1015,7 hPa 0,0 l/m 0,8 km/h (0 Bft) O-NO 61 0 min 0,000 mm 0,0 UV-I 2 W/m 6,8 C 7,2 C 1,6 km/h (1 Bft) 98,00 %
07.10.2016 07:34 7,2 C 97 % 1015,7 hPa 0,0 l/m 2,4 km/h (1 Bft) O-NO 61 0 min 0,000 mm 0,0 UV-I 5 W/m 6,8 C 7,2 C 4,8 km/h (1 Bft) 97,92 %
07.10.2016 07:36 7,2 C 97 % 1015,6 hPa 0,0 l/m 3,1 km/h (1 Bft) O-NO 73 0 min 0,000 mm 0,0 UV-I 6 W/m 6,8 C 7,2 C 4,8 km/h (1 Bft) 97,56 %
07.10.2016 07:38 7,2 C 97 % 1015,6 hPa 0,0 l/m 2,7 km/h (1 Bft) O-NO 73 0 min 0,000 mm 0,0 UV-I 7 W/m 6,8 C 7,2 C 4,8 km/h (1 Bft) 97,83 %
07.10.2016 07:40 7,2 C 97 % 1015,6 hPa 0,0 l/m 3,0 km/h (1 Bft) O-NO 75 0 min 0,000 mm 0,0 UV-I 8 W/m 6,8 C 7,2 C 4,8 km/h (1 Bft) 96,43 %
07.10.2016 07:42 7,2 C 97 % 1015,6 hPa 0,2 l/m 2,7 km/h (1 Bft) O 80 0 min 0,000 mm 0,0 UV-I 9 W/m 6,8 C 7,2 C 4,8 km/h (1 Bft) 97,37 %
07.10.2016 07:44 7,2 C 97 % 1015,6 hPa 0,0 l/m 3,7 km/h (1 Bft) O 79 0 min 0,000 mm 0,0 UV-I 11 W/m 6,8 C 7,2 C 8,0 km/h (2 Bft) 97,73 %
07.10.2016 07:46 7,2 C 97 % 1015,6 hPa 0,0 l/m 5,1 km/h (1 Bft) O-NO 78 0 min 0,000 mm 0,0 UV-I 11 W/m 6,8 C 7,2 C 8,0 km/h (2 Bft) 97,87 %
07.10.2016 07:48 7,2 C 97 % 1015,7 hPa 0,0 l/m 5,5 km/h (1 Bft) O-NO 76 0 min 0,000 mm 0,0 UV-I 11 W/m 6,8 C 7,2 C 8,0 km/h (2 Bft) 97,87 %
07.10.2016 07:50 7,2 C 97 % 1015,7 hPa 0,0 l/m 4,3 km/h (1 Bft) O 82 0 min 0,000 mm 0,0 UV-I 11 W/m 6,8 C 7,2 C 6,4 km/h (2 Bft) 98,11 %
07.10.2016 07:52 7,2 C 97 % 1015,7 hPa 0,0 l/m 4,9 km/h (1 Bft) O 80 0 min 0,000 mm 0,0 UV-I 12 W/m 6,8 C 7,2 C 8,0 km/h (2 Bft) 96,00 %
07.10.2016 07:54 7,2 C 97 % 1015,7 hPa 0,0 l/m 5,2 km/h (1 Bft) O 88 0 min 0,000 mm 0,0 UV-I 12 W/m 6,8 C 7,2 C 9,7 km/h (2 Bft) 95,12 %
07.10.2016 07:56 7,2 C 97 % 1015,7 hPa 0,0 l/m 3,5 km/h (1 Bft) O 82 0 min 0,000 mm 0,0 UV-I 14 W/m 6,8 C 7,2 C 4,8 km/h (1 Bft) 96,23 %
07.10.2016 07:58 7,2 C 97 % 1015,7 hPa 0,0 l/m 3,2 km/h (1 Bft) O 82 0 min 0,000 mm 0,0 UV-I 15 W/m 6,8 C 7,2 C 4,8 km/h (1 Bft) 95,74 %
07.10.2016 08:00 7,2 C 97 % 1015,7 hPa 0,0 l/m 3,5 km/h (1 Bft) O-NO 78 0 min 0,000 mm 0,0 UV-I 16 W/m 6,8 C 7,2 C 4,8 km/h (1 Bft) 100,00 %
07.10.2016 08:02 7,2 C 97 % 1015,7 hPa 0,0 l/m 3,5 km/h (1 Bft) O 84 0 min 0,000 mm 0,0 UV-I 16 W/m 6,8 C 7,2 C 4,8 km/h (1 Bft) 100,00 %
07.10.2016 08:04 7,2 C 97 % 1015,7 hPa 0,0 l/m 4,2 km/h (1 Bft) O-NO 74 0 min 0,000 mm 0,0 UV-I 18 W/m 6,8 C 7,2 C 6,4 km/h (2 Bft) 95,74 %
07.10.2016 08:06 7,2 C 97 % 1015,8 hPa 0,0 l/m 3,1 km/h (1 Bft) O-NO 71 0 min 0,000 mm 0,0 UV-I 17 W/m 6,8 C 7,2 C 4,8 km/h (1 Bft) 100,00 %
07.10.2016 08:08 7,2 C 97 % 1015,8 hPa 0,0 l/m 3,8 km/h (1 Bft) O-NO 71 0 min 0,000 mm 0,0 UV-I 15 W/m 6,8 C 7,2 C 4,8 km/h (1 Bft) 100,00 %
07.10.2016 08:10 7,2 C 97 % 1015,8 hPa 0,0 l/m 3,4 km/h (1 Bft) O-NO 78 0 min 0,000 mm 0,0 UV-I 14 W/m 6,8 C 7,2 C 4,8 km/h (1 Bft) 100,00 %
07.10.2016 08:12 7,2 C 97 % 1015,9 hPa 0,0 l/m 5,5 km/h (1 Bft) O 84 0 min 0,000 mm 0,0 UV-I 14 W/m 6,8 C 7,2 C 8,0 km/h (2 Bft) 98,15 %
07.10.2016 08:14 7,2 C 97 % 1015,9 hPa 0,0 l/m 3,1 km/h (1 Bft) O-NO 78 0 min 0,000 mm 0,0 UV-I 14 W/m 6,8 C 7,2 C 4,8 km/h (1 Bft) 98,08 %
07.10.2016 08:16 7,1 C 97 % 1015,9 hPa 0,0 l/m 5,1 km/h (1 Bft) O-NO 70 0 min 0,000 mm 0,0 UV-I 14 W/m 6,7 C 7,1 C 8,0 km/h (2 Bft) 100,00 %
07.10.2016 08:18 7,1 C 97 % 1015,9 hPa 0,0 l/m 4,7 km/h (1 Bft) O-NO 71 0 min 0,000 mm 0,0 UV-I 15 W/m 6,7 C 7,1 C 8,0 km/h (2 Bft) 100,00 %
07.10.2016 08:20 7,1 C 97 % 1015,9 hPa 0,0 l/m 5,0 km/h (1 Bft) O-NO 75 0 min 0,000 mm 0,0 UV-I 16 W/m 6,7 C 7,1 C 8,0 km/h (2 Bft) 100,00 %
07.10.2016 08:22 7,1 C 97 % 1015,9 hPa 0,0 l/m 5,1 km/h (1 Bft) O-NO 67 0 min 0,000 mm 0,0 UV-I 16 W/m 6,7 C 7,1 C 8,0 km/h (2 Bft) 100,00 %
07.10.2016 08:24 7,1 C 97 % 1015,9 hPa 0,0 l/m 4,5 km/h (1 Bft) O-NO 62 0 min 0,000 mm 0,0 UV-I 17 W/m 6,7 C 7,1 C 6,4 km/h (2 Bft) 100,00 %
07.10.2016 08:26 7,1 C 97 % 1015,9 hPa 0,0 l/m 2,0 km/h (1 Bft) O 98 0 min 0,000 mm 0,0 UV-I 18 W/m 6,7 C 7,1 C 3,2 km/h (1 Bft) 100,00 %
07.10.2016 08:28 7,1 C 97 % 1015,9 hPa 0,0 l/m 2,9 km/h (1 Bft) O 98 0 min 0,000 mm 0,0 UV-I 19 W/m 6,7 C 7,1 C 4,8 km/h (1 Bft) 100,00 %
07.10.2016 08:30 7,1 C 97 % 1015,9 hPa 0,0 l/m 2,4 km/h (1 Bft) O-SO 115 0 min 0,000 mm 0,0 UV-I 21 W/m 6,7 C 7,1 C 6,4 km/h (2 Bft) 100,00 %
07.10.2016 08:32 7,2 C 97 % 1015,9 hPa 0,0 l/m 5,1 km/h (1 Bft) O 101 0 min 0,000 mm 0,0 UV-I 24 W/m 6,8 C 7,2 C 6,4 km/h (2 Bft) 100,00 %
07.10.2016 08:34 7,2 C 97 % 1015,9 hPa 0,0 l/m 2,8 km/h (1 Bft) O 101 0 min 0,000 mm 0,0 UV-I 26 W/m 6,8 C 7,2 C 4,8 km/h (1 Bft) 100,00 %
07.10.2016 08:36 7,2 C 97 % 1015,9 hPa 0,0 l/m 2,2 km/h (1 Bft) SO 138 0 min 0,000 mm 0,0 UV-I 29 W/m 6,8 C 7,2 C 4,8 km/h (1 Bft) 100,00 %
07.10.2016 08:38 7,2 C 97 % 1015,9 hPa 0,0 l/m 3,3 km/h (1 Bft) O-SO 123 0 min 0,000 mm 0,0 UV-I 30 W/m 6,8 C 7,2 C 4,8 km/h (1 Bft) 97,37 %
07.10.2016 08:40 7,2 C 97 % 1016,0 hPa 0,0 l/m 4,0 km/h (1 Bft) O-SO 115 0 min 0,000 mm 0,0 UV-I 31 W/m 6,8 C 7,2 C 6,4 km/h (2 Bft) 100,00 %
07.10.2016 08:42 7,2 C 97 % 1015,9 hPa 0,0 l/m 4,4 km/h (1 Bft) O-SO 106 0 min 0,000 mm 0,0 UV-I 33 W/m 6,8 C 7,2 C 6,4 km/h (2 Bft) 94,00 %
07.10.2016 08:44 7,2 C 97 % 1016,0 hPa 0,0 l/m 3,9 km/h (1 Bft) O 98 0 min 0,000 mm 0,0 UV-I 38 W/m 6,8 C 7,2 C 6,4 km/h (2 Bft) 100,00 %
07.10.2016 08:46 7,2 C 97 % 1016,0 hPa 0,0 l/m 3,6 km/h (1 Bft) O 98 0 min 0,000 mm 0,0 UV-I 40 W/m 6,8 C 7,2 C 6,4 km/h (2 Bft) 100,00 %
07.10.2016 08:48 7,2 C 97 % 1016,0 hPa 0,0 l/m 1,6 km/h (1 Bft) O 98 0 min 0,000 mm 0,0 UV-I 43 W/m 6,8 C 7,2 C 3,2 km/h (1 Bft) 93,62 %
07.10.2016 08:50 7,2 C 97 % 1016,0 hPa 0,0 l/m 2,1 km/h (1 Bft) O-SO 113 0 min 0,000 mm 0,0 UV-I 44 W/m 6,8 C 7,2 C 4,8 km/h (1 Bft) 100,00 %
07.10.2016 08:52 7,2 C 97 % 1016,0 hPa 0,0 l/m 3,2 km/h (1 Bft) O-SO 113 0 min 0,000 mm 0,0 UV-I 46 W/m 6,8 C 7,2 C 4,8 km/h (1 Bft) 100,00 %
07.10.2016 08:54 7,2 C 97 % 1016,0 hPa 0,0 l/m 3,3 km/h (1 Bft) O-SO 113 0 min 0,000 mm 0,0 UV-I 46 W/m 6,8 C 7,2 C 6,4 km/h (2 Bft) 97,96 %
07.10.2016 08:56 7,2 C 97 % 1016,0 hPa 0,0 l/m 4,0 km/h (1 Bft) O-SO 113 0 min 0,000 mm 0,0 UV-I 47 W/m 6,8 C 7,2 C 6,4 km/h (2 Bft) 100,00 %
07.10.2016 08:58 7,2 C 97 % 1016,0 hPa 0,0 l/m 3,0 km/h (1 Bft) O-SO 105 0 min 0,000 mm 0,0 UV-I 50 W/m 6,8 C 7,2 C 4,8 km/h (1 Bft) 96,00 %
07.10.2016 09:00 7,2 C 97 % 1016,0 hPa 0,0 l/m 2,5 km/h (1 Bft) O-SO 105 0 min 0,025 mm 0,0 UV-I 53 W/m 6,8 C 7,2 C 3,2 km/h (1 Bft) 100,00 %
07.10.2016 09:02 7,2 C 97 % 1016,1 hPa 0,0 l/m 1,5 km/h (1 Bft) O-SO 108 0 min 0,000 mm 0,0 UV-I 54 W/m 6,8 C 7,2 C 3,2 km/h (1 Bft) 100,00 %
07.10.2016 09:04 7,2 C 97 % 1016,1 hPa 0,0 l/m 1,8 km/h (1 Bft) O-SO 108 0 min 0,000 mm 0,0 UV-I 56 W/m 6,8 C 7,2 C 4,8 km/h (1 Bft) 97,73 %
07.10.2016 09:06 7,3 C 97 % 1016,0 hPa 0,0 l/m 1,4 km/h (1 Bft) O-SO 108 0 min 0,000 mm 0,0 UV-I 56 W/m 6,9 C 7,3 C 3,2 km/h (1 Bft) 100,00 %
07.10.2016 09:08 7,3 C 97 % 1016,1 hPa 0,0 l/m 0,0 km/h (0 Bft) O-SO 108 0 min 0,000 mm 0,0 UV-I 56 W/m 6,9 C 7,3 C 1,6 km/h (1 Bft) 100,00 %
07.10.2016 09:10 7,3 C 97 % 1016,1 hPa 0,0 l/m 3,5 km/h (1 Bft) O-SO 108 0 min 0,000 mm 0,0 UV-I 58 W/m 6,9 C 7,3 C 4,8 km/h (1 Bft) 100,00 %
07.10.2016 09:12 7,3 C 97 % 1016,1 hPa 0,0 l/m 1,8 km/h (1 Bft) O-SO 108 0 min 0,000 mm 0,0 UV-I 61 W/m 6,9 C 7,3 C 3,2 km/h (1 Bft) 100,00 %
07.10.2016 09:14 7,2 C 97 % 1016,1 hPa 0,0 l/m 2,2 km/h (1 Bft) O-SO 108 0 min 0,000 mm 0,0 UV-I 64 W/m 6,8 C 7,2 C 4,8 km/h (1 Bft) 100,00 %
07.10.2016 09:16 7,3 C 97 % 1016,1 hPa 0,0 l/m 1,5 km/h (1 Bft) O-SO 108 0 min 0,000 mm 0,0 UV-I 68 W/m 6,9 C 7,3 C 3,2 km/h (1 Bft) 100,00 %
07.10.2016 09:18 7,3 C 97 % 1016,1 hPa 0,0 l/m 2,1 km/h (1 Bft) O-SO 108 0 min 0,000 mm 0,0 UV-I 71 W/m 6,9 C 7,3 C 3,2 km/h (1 Bft) 100,00 %
07.10.2016 09:20 7,3 C 97 % 1016,1 hPa 0,0 l/m 1,4 km/h (1 Bft) O-SO 108 0 min 0,000 mm 0,0 UV-I 74 W/m 6,9 C 7,3 C 3,2 km/h (1 Bft) 98,00 %
07.10.2016 09:22 7,3 C 97 % 1016,1 hPa 0,0 l/m 3,6 km/h (1 Bft) O-SO 108 0 min 0,000 mm 0,0 UV-I 77 W/m 6,9 C 7,3 C 4,8 km/h (1 Bft) 100,00 %
07.10.2016 09:24 7,3 C 97 % 1016,1 hPa 0,0 l/m 2,5 km/h (1 Bft) O-SO 111 0 min 0,000 mm 0,0 UV-I 81 W/m 6,9 C 7,3 C 4,8 km/h (1 Bft) 98,21 %
07.10.2016 09:26 7,3 C 97 % 1016,2 hPa 0,0 l/m 2,4 km/h (1 Bft) O-SO 111 0 min 0,000 mm 0,0 UV-I 84 W/m 6,9 C 7,3 C 4,8 km/h (1 Bft) 97,56 %
07.10.2016 09:28 7,3 C 97 % 1016,2 hPa 0,0 l/m 2,4 km/h (1 Bft) O-SO 111 0 min 0,000 mm 0,0 UV-I 87 W/m 6,9 C 7,3 C 3,2 km/h (1 Bft) 95,83 %
07.10.2016 09:30 7,4 C 97 % 1016,2 hPa 0,0 l/m 1,0 km/h (0 Bft) O-SO 111 0 min 0,000 mm 0,0 UV-I 90 W/m 7,0 C 7,4 C 3,2 km/h (1 Bft) 95,74 %
07.10.2016 09:32 7,4 C 97 % 1016,2 hPa 0,0 l/m 0,9 km/h (0 Bft) O-SO 111 0 min 0,000 mm 0,0 UV-I 94 W/m 7,0 C 7,4 C 3,2 km/h (1 Bft) 96,15 %
07.10.2016 09:34 7,4 C 97 % 1016,2 hPa 0,0 l/m 0,8 km/h (0 Bft) O-SO 111 0 min 0,000 mm 0,0 UV-I 99 W/m 7,0 C 7,4 C 3,2 km/h (1 Bft) 95,83 %
07.10.2016 09:36 7,4 C 97 % 1016,2 hPa 0,0 l/m 0,7 km/h (0 Bft) O-SO 111 0 min 0,000 mm 0,0 UV-I 105 W/m 7,0 C 7,4 C 3,2 km/h (1 Bft) 97,37 %
07.10.2016 09:38 7,4 C 97 % 1016,2 hPa 0,0 l/m 0,0 km/h (0 Bft) O-SO 111 0 min 0,000 mm 0,0 UV-I 112 W/m 7,0 C 7,4 C 0,0 km/h (0 Bft) 98,00 %
07.10.2016 09:40 7,5 C 97 % 1016,2 hPa 0,0 l/m 0,2 km/h (0 Bft) O-SO 111 0 min 0,000 mm 0,0 UV-I 113 W/m 7,1 C 7,5 C 1,6 km/h (1 Bft) 94,12 %
07.10.2016 09:42 7,6 C 97 % 1016,2 hPa 0,0 l/m 2,0 km/h (1 Bft) O-SO 111 0 min 0,000 mm 0,0 UV-I 120 W/m 7,2 C 7,6 C 3,2 km/h (1 Bft) 95,12 %
07.10.2016 09:44 7,6 C 97 % 1016,1 hPa 0,0 l/m 1,1 km/h (1 Bft) O-SO 111 0 min 0,000 mm 0,0 UV-I 131 W/m 7,2 C 7,6 C 3,2 km/h (1 Bft) 98,00 %
07.10.2016 09:46 7,6 C 96 % 1016,1 hPa 0,0 l/m 3,6 km/h (1 Bft) O-NO 65 0 min 0,000 mm 0,0 UV-I 138 W/m 7,0 C 7,6 C 6,4 km/h (2 Bft) 98,00 %
07.10.2016 09:48 7,6 C 96 % 1016,2 hPa 0,0 l/m 3,5 km/h (1 Bft) O-NO 65 0 min 0,000 mm 0,0 UV-I 141 W/m 7,0 C 7,6 C 4,8 km/h (1 Bft) 97,87 %
07.10.2016 09:50 7,6 C 96 % 1016,2 hPa 0,0 l/m 5,1 km/h (1 Bft) O-NO 68 0 min 0,000 mm 0,0 UV-I 141 W/m 7,0 C 7,6 C 8,0 km/h (2 Bft) 94,44 %
07.10.2016 09:52 7,7 C 96 % 1016,2 hPa 0,0 l/m 4,8 km/h (1 Bft) O-NO 60 0 min 0,000 mm 0,0 UV-I 144 W/m 7,1 C 7,7 C 6,4 km/h (2 Bft) 98,00 %
07.10.2016 09:54 7,7 C 96 % 1016,2 hPa 0,0 l/m 4,9 km/h (1 Bft) O-NO 74 0 min 0,000 mm 0,0 UV-I 143 W/m 7,1 C 7,7 C 8,0 km/h (2 Bft) 95,74 %
07.10.2016 09:56 7,7 C 96 % 1016,2 hPa 0,0 l/m 4,8 km/h (1 Bft) O-NO 65 0 min 0,000 mm 0,0 UV-I 142 W/m 7,1 C 7,7 C 6,4 km/h (2 Bft) 98,00 %
07.10.2016 09:58 7,7 C 96 % 1016,3 hPa 0,0 l/m 5,6 km/h (1 Bft) NO 54 0 min 0,000 mm 0,3 UV-I 150 W/m 7,1 C 7,7 C 8,0 km/h (2 Bft) 92,00 %
07.10.2016 10:00 7,8 C 96 % 1016,3 hPa 0,0 l/m 3,9 km/h (1 Bft) NO 53 0 min 0,051 mm 0,5 UV-I 155 W/m 7,2 C 7,8 C 6,4 km/h (2 Bft) 96,00 %
07.10.2016 10:02 7,8 C 95 % 1016,3 hPa 0,0 l/m 5,0 km/h (1 Bft) NO 38 0 min 0,000 mm 0,5 UV-I 162 W/m 7,0 C 7,8 C 8,0 km/h (2 Bft) 97,87 %
07.10.2016 10:04 7,8 C 95 % 1016,3 hPa 0,0 l/m 4,9 km/h (1 Bft) O-NO 60 0 min 0,000 mm 0,5 UV-I 171 W/m 7,0 C 7,8 C 8,0 km/h (2 Bft) 97,37 %
07.10.2016 10:06 7,9 C 95 % 1016,4 hPa 0,0 l/m 6,1 km/h (2 Bft) NO 44 0 min 0,000 mm 0,5 UV-I 178 W/m 7,1 C 7,9 C 9,7 km/h (2 Bft) 100,00 %
07.10.2016 10:08 7,9 C 95 % 1016,3 hPa 0,0 l/m 6,4 km/h (2 Bft) NO 53 0 min 0,000 mm 0,6 UV-I 186 W/m 7,1 C 7,9 C 9,7 km/h (2 Bft) 100,00 %
07.10.2016 10:10 7,9 C 94 % 1016,3 hPa 0,0 l/m 5,2 km/h (1 Bft) NO 49 0 min 0,000 mm 0,6 UV-I 193 W/m 7,0 C 7,9 C 6,4 km/h (2 Bft) 100,00 %
07.10.2016 10:12 7,9 C 94 % 1016,3 hPa 0,0 l/m 4,8 km/h (1 Bft) O-NO 57 0 min 0,000 mm 0,6 UV-I 195 W/m 7,0 C 7,9 C 8,0 km/h (2 Bft) 100,00 %
07.10.2016 10:14 8,0 C 94 % 1016,3 hPa 0,0 l/m 4,6 km/h (1 Bft) NO 49 0 min 0,000 mm 0,6 UV-I 203 W/m 7,1 C 8,0 C 6,4 km/h (2 Bft) 100,00 %
07.10.2016 10:16 8,1 C 94 % 1016,3 hPa 0,0 l/m 4,8 km/h (1 Bft) NO 53 0 min 0,000 mm 0,6 UV-I 209 W/m 7,2 C 8,1 C 8,0 km/h (2 Bft) 97,87 %
07.10.2016 10:18 8,2 C 94 % 1016,3 hPa 0,0 l/m 2,9 km/h (1 Bft) NO 53 0 min 0,000 mm 0,7 UV-I 221 W/m 7,3 C 8,2 C 6,4 km/h (2 Bft) 100,00 %
07.10.2016 10:20 8,2 C 95 % 1016,3 hPa 0,0 l/m 4,0 km/h (1 Bft) O-NO 59 0 min 0,000 mm 0,7 UV-I 223 W/m 7,4 C 8,2 C 8,0 km/h (2 Bft) 100,00 %
07.10.2016 10:22 8,3 C 94 % 1016,3 hPa 0,0 l/m 6,7 km/h (2 Bft) NO 40 0 min 0,000 mm 0,7 UV-I 226 W/m 7,4 C 8,1 C 11,3 km/h (2 Bft) 97,87 %
07.10.2016 10:24 8,4 C 94 % 1016,3 hPa 0,0 l/m 5,3 km/h (1 Bft) NO 47 0 min 0,000 mm 0,7 UV-I 228 W/m 7,5 C 8,4 C 6,4 km/h (2 Bft) 100,00 %
07.10.2016 10:26 8,4 C 94 % 1016,3 hPa 0,0 l/m 4,8 km/h (1 Bft) O-NO 59 0 min 0,000 mm 0,7 UV-I 219 W/m 7,5 C 8,4 C 6,4 km/h (2 Bft) 100,00 %
07.10.2016 10:28 8,4 C 93 % 1016,4 hPa 0,0 l/m 5,6 km/h (1 Bft) O-NO 69 0 min 0,000 mm 0,6 UV-I 203 W/m 7,3 C 8,4 C 8,0 km/h (2 Bft) 100,00 %
07.10.2016 10:30 8,4 C 93 % 1016,4 hPa 0,0 l/m 4,5 km/h (1 Bft) O-NO 61 0 min 0,000 mm 0,6 UV-I 189 W/m 7,3 C 8,4 C 6,4 km/h (2 Bft) 100,00 %
07.10.2016 10:32 8,5 C 93 % 1016,4 hPa 0,0 l/m 3,9 km/h (1 Bft) O-NO 61 0 min 0,000 mm 0,6 UV-I 167 W/m 7,4 C 8,5 C 6,4 km/h (2 Bft) 100,00 %
07.10.2016 10:34 8,5 C 92 % 1016,4 hPa 0,0 l/m 5,6 km/h (1 Bft) O-NO 73 0 min 0,000 mm 0,5 UV-I 154 W/m 7,3 C 8,5 C 9,7 km/h (2 Bft) 100,00 %
07.10.2016 10:36 8,4 C 92 % 1016,4 hPa 0,0 l/m 6,5 km/h (2 Bft) O-NO 63 0 min 0,000 mm 0,5 UV-I 152 W/m 7,2 C 8,3 C 9,7 km/h (2 Bft) 100,00 %
07.10.2016 10:38 8,4 C 92 % 1016,4 hPa 0,0 l/m 4,7 km/h (1 Bft) O-NO 63 0 min 0,000 mm 0,6 UV-I 154 W/m 7,2 C 8,4 C 6,4 km/h (2 Bft) 100,00 %
07.10.2016 10:40 8,5 C 92 % 1016,4 hPa 0,0 l/m 4,6 km/h (1 Bft) N-NO 33 0 min 0,000 mm 0,5 UV-I 151 W/m 7,3 C 8,5 C 6,4 km/h (2 Bft) 100,00 %
07.10.2016 10:42 8,6 C 92 % 1016,4 hPa 0,0 l/m 3,6 km/h (1 Bft) NO 35 0 min 0,000 mm 0,6 UV-I 158 W/m 7,4 C 8,6 C 6,4 km/h (2 Bft) 97,87 %
07.10.2016 10:44 8,6 C 92 % 1016,4 hPa 0,0 l/m 4,2 km/h (1 Bft) O-NO 75 0 min 0,000 mm 0,6 UV-I 168 W/m 7,4 C 8,6 C 6,4 km/h (2 Bft) 100,00 %
07.10.2016 10:46 8,6 C 92 % 1016,3 hPa 0,0 l/m 4,5 km/h (1 Bft) O 101 0 min 0,000 mm 0,6 UV-I 164 W/m 7,4 C 8,6 C 6,4 km/h (2 Bft) 100,00 %
07.10.2016 10:48 8,7 C 92 % 1016,4 hPa 0,0 l/m 4,5 km/h (1 Bft) NO 54 0 min 0,000 mm 0,6 UV-I 155 W/m 7,5 C 8,7 C 8,0 km/h (2 Bft) 100,00 %
07.10.2016 10:50 8,7 C 92 % 1016,4 hPa 0,0 l/m 6,1 km/h (2 Bft) NO 44 0 min 0,000 mm 0,5 UV-I 148 W/m 7,5 C 8,7 C 9,7 km/h (2 Bft) 100,00 %
07.10.2016 10:52 8,7 C 92 % 1016,4 hPa 0,0 l/m 4,5 km/h (1 Bft) NO 47 0 min 0,000 mm 0,6 UV-I 153 W/m 7,5 C 8,7 C 6,4 km/h (2 Bft) 100,00 %
07.10.2016 10:54 8,7 C 92 % 1016,4 hPa 0,0 l/m 3,6 km/h (1 Bft) NO 47 0 min 0,000 mm 0,6 UV-I 165 W/m 7,5 C 8,7 C 6,4 km/h (2 Bft) 100,00 %
07.10.2016 10:56 8,8 C 92 % 1016,4 hPa 0,0 l/m 4,6 km/h (1 Bft) NO 45 0 min 0,000 mm 0,6 UV-I 169 W/m 7,6 C 8,8 C 8,0 km/h (2 Bft) 100,00 %
07.10.2016 10:59 8,8 C 91 % 1016,3 hPa 0,0 l/m 7,4 km/h (2 Bft) O-NO 57 0 min 0,000 mm 0,7 UV-I 172 W/m 7,4 C 8,0 C 11,3 km/h (2 Bft) 97,06 %
07.10.2016 11:00 8,7 C 90 % 1016,3 hPa 0,0 l/m 7,7 km/h (2 Bft) NO 38 0 min 0,076 mm 0,7 UV-I 173 W/m 7,2 C 7,7 C 11,3 km/h (2 Bft) 100,00 %
07.10.2016 11:02 8,7 C 91 % 1016,4 hPa 0,0 l/m 7,9 km/h (2 Bft) O-NO 78 0 min 0,000 mm 0,7 UV-I 176 W/m 7,3 C 7,6 C 11,3 km/h (2 Bft) 100,00 %
07.10.2016 11:04 8,8 C 90 % 1016,4 hPa 0,0 l/m 5,6 km/h (1 Bft) N-NO 23 0 min 0,000 mm 0,7 UV-I 181 W/m 7,3 C 8,8 C 8,0 km/h (2 Bft) 100,00 %
07.10.2016 11:06 8,8 C 89 % 1016,4 hPa 0,0 l/m 2,5 km/h (1 Bft) N-NO 30 0 min 0,000 mm 0,8 UV-I 184 W/m 7,1 C 8,8 C 4,8 km/h (1 Bft) 100,00 %
07.10.2016 11:08 8,8 C 90 % 1016,4 hPa 0,0 l/m 3,2 km/h (1 Bft) N-NO 25 0 min 0,000 mm 0,8 UV-I 185 W/m 7,3 C 8,8 C 6,4 km/h (2 Bft) 100,00 %
07.10.2016 11:10 8,8 C 90 % 1016,4 hPa 0,0 l/m 6,2 km/h (2 Bft) NO 55 0 min 0,000 mm 0,7 UV-I 178 W/m 7,3 C 8,8 C 9,7 km/h (2 Bft) 100,00 %
07.10.2016 11:12 8,9 C 90 % 1016,4 hPa 0,0 l/m 4,1 km/h (1 Bft) O-NO 67 0 min 0,000 mm 0,8 UV-I 182 W/m 7,4 C 8,9 C 6,4 km/h (2 Bft) 100,00 %
07.10.2016 11:14 8,9 C 90 % 1016,4 hPa 0,0 l/m 4,1 km/h (1 Bft) NO 40 0 min 0,000 mm 0,8 UV-I 182 W/m 7,4 C 8,9 C 8,0 km/h (2 Bft) 98,00 %
07.10.2016 11:16 9,0 C 90 % 1016,4 hPa 0,0 l/m 5,1 km/h (1 Bft) O-NO 57 0 min 0,000 mm 0,7 UV-I 175 W/m 7,4 C 9,0 C 8,0 km/h (2 Bft) 100,00 %
07.10.2016 11:18 9,0 C 90 % 1016,4 hPa 0,0 l/m 5,0 km/h (1 Bft) O-NO 62 0 min 0,000 mm 0,8 UV-I 183 W/m 7,4 C 9,0 C 8,0 km/h (2 Bft) 100,00 %
07.10.2016 11:20 9,0 C 89 % 1016,4 hPa 0,0 l/m 5,1 km/h (1 Bft) O 84 0 min 0,000 mm 0,9 UV-I 193 W/m 7,3 C 9,0 C 6,4 km/h (2 Bft) 100,00 %
07.10.2016 11:22 9,0 C 88 % 1016,4 hPa 0,0 l/m 4,9 km/h (1 Bft) O-NO 75 0 min 0,000 mm 0,9 UV-I 191 W/m 7,1 C 9,0 C 6,4 km/h (2 Bft) 97,87 %
07.10.2016 11:24 9,0 C 88 % 1016,4 hPa 0,0 l/m 5,5 km/h (1 Bft) NO 54 0 min 0,000 mm 0,9 UV-I 186 W/m 7,1 C 9,0 C 9,7 km/h (2 Bft) 100,00 %
07.10.2016 11:26 9,0 C 88 % 1016,4 hPa 0,0 l/m 6,2 km/h (2 Bft) O-NO 61 0 min 0,000 mm 1,0 UV-I 196 W/m 7,1 C 9,0 C 9,7 km/h (2 Bft) 98,21 %
07.10.2016 11:28 9,0 C 88 % 1016,4 hPa 0,0 l/m 6,0 km/h (2 Bft) NO 54 0 min 0,000 mm 0,9 UV-I 204 W/m 7,1 C 9,0 C 8,0 km/h (2 Bft) 97,37 %
07.10.2016 11:30 9,1 C 88 % 1016,4 hPa 0,0 l/m 5,3 km/h (1 Bft) O-NO 62 0 min 0,000 mm 0,9 UV-I 201 W/m 7,2 C 9,1 C 8,0 km/h (2 Bft) 97,87 %
07.10.2016 11:32 9,1 C 88 % 1016,4 hPa 0,0 l/m 5,0 km/h (1 Bft) NO 39 0 min 0,000 mm 0,9 UV-I 205 W/m 7,2 C 9,1 C 8,0 km/h (2 Bft) 98,00 %
07.10.2016 11:34 9,2 C 89 % 1016,4 hPa 0,0 l/m 4,8 km/h (1 Bft) NO 37 0 min 0,000 mm 0,9 UV-I 234 W/m 7,5 C 9,2 C 6,4 km/h (2 Bft) 95,74 %
07.10.2016 11:36 9,2 C 89 % 1016,4 hPa 0,0 l/m 3,8 km/h (1 Bft) O 80 0 min 0,000 mm 1,1 UV-I 265 W/m 7,5 C 9,2 C 4,8 km/h (1 Bft) 97,87 %
07.10.2016 11:38 9,3 C 89 % 1016,4 hPa 0,0 l/m 4,3 km/h (1 Bft) O 92 0 min 0,000 mm 1,2 UV-I 282 W/m 7,6 C 9,3 C 6,4 km/h (2 Bft) 97,37 %
07.10.2016 11:40 9,3 C 88 % 1016,4 hPa 0,0 l/m 3,1 km/h (1 Bft) O 79 0 min 0,000 mm 1,2 UV-I 280 W/m 7,4 C 9,3 C 6,4 km/h (2 Bft) 98,11 %
07.10.2016 11:42 9,3 C 87 % 1016,4 hPa 0,0 l/m 3,7 km/h (1 Bft) O 89 0 min 0,000 mm 1,2 UV-I 280 W/m 7,2 C 9,3 C 6,4 km/h (2 Bft) 95,74 %
07.10.2016 11:44 9,4 C 87 % 1016,3 hPa 0,0 l/m 6,6 km/h (2 Bft) O 96 0 min 0,000 mm 1,2 UV-I 274 W/m 7,3 C 9,3 C 11,3 km/h (2 Bft) 97,87 %
07.10.2016 11:46 9,3 C 86 % 1016,3 hPa 0,0 l/m 4,0 km/h (1 Bft) O-NO 78 0 min 0,000 mm 1,3 UV-I 292 W/m 7,1 C 9,3 C 6,4 km/h (2 Bft) 98,11 %
07.10.2016 11:48 9,4 C 86 % 1016,4 hPa 0,0 l/m 5,3 km/h (1 Bft) NO 51 2 min 0,000 mm 1,3 UV-I 331 W/m 7,2 C 9,4 C 8,0 km/h (2 Bft) 95,83 %
07.10.2016 11:50 9,4 C 86 % 1016,4 hPa 0,0 l/m 5,0 km/h (1 Bft) O-NO 65 0 min 0,000 mm 1,2 UV-I 290 W/m 7,2 C 9,4 C 8,0 km/h (2 Bft) 96,92 %
07.10.2016 11:52 9,4 C 85 % 1016,4 hPa 0,0 l/m 5,3 km/h (1 Bft) O 101 0 min 0,000 mm 1,2 UV-I 274 W/m 7,0 C 9,4 C 9,7 km/h (2 Bft) 98,08 %
07.10.2016 11:54 9,5 C 85 % 1016,4 hPa 0,0 l/m 6,4 km/h (2 Bft) O-NO 71 0 min 0,000 mm 1,2 UV-I 269 W/m 7,1 C 9,5 C 9,7 km/h (2 Bft) 97,22 %
07.10.2016 11:56 9,5 C 84 % 1016,4 hPa 0,0 l/m 3,0 km/h (1 Bft) O-NO 71 0 min 0,000 mm 1,2 UV-I 272 W/m 6,9 C 9,5 C 4,8 km/h (1 Bft) 98,00 %
07.10.2016 11:58 9,6 C 85 % 1016,4 hPa 0,0 l/m 2,4 km/h (1 Bft) O-NO 65 0 min 0,000 mm 1,1 UV-I 269 W/m 7,2 C 9,6 C 4,8 km/h (1 Bft) 97,87 %
07.10.2016 12:00 9,7 C 86 % 1016,4 hPa 0,0 l/m 6,0 km/h (2 Bft) O-NO 69 0 min 0,102 mm 1,1 UV-I 276 W/m 7,5 C 9,7 C 8,0 km/h (2 Bft) 97,87 %
07.10.2016 12:02 9,7 C 85 % 1016,4 hPa 0,0 l/m 4,3 km/h (1 Bft) O-SO 108 0 min 0,000 mm 1,2 UV-I 309 W/m 7,3 C 9,7 C 6,4 km/h (2 Bft) 100,00 %
07.10.2016 12:04 9,7 C 85 % 1016,4 hPa 0,0 l/m 5,7 km/h (1 Bft) O-NO 63 2 min 0,000 mm 1,2 UV-I 331 W/m 7,3 C 9,7 C 8,0 km/h (2 Bft) 100,00 %
07.10.2016 12:06 9,7 C 84 % 1016,4 hPa 0,0 l/m 6,3 km/h (2 Bft) NO 39 2 min 0,000 mm 1,1 UV-I 328 W/m 7,1 C 9,7 C 8,0 km/h (2 Bft) 97,56 %
07.10.2016 12:08 9,8 C 84 % 1016,4 hPa 0,0 l/m 3,7 km/h (1 Bft) NO 40 0 min 0,000 mm 1,1 UV-I 303 W/m 7,2 C 9,8 C 6,4 km/h (2 Bft) 100,00 %
07.10.2016 12:10 9,8 C 83 % 1016,4 hPa 0,0 l/m 2,5 km/h (1 Bft) O-NO 74 0 min 0,000 mm 1,0 UV-I 274 W/m 7,1 C 9,8 C 6,4 km/h (2 Bft) 100,00 %
07.10.2016 12:12 9,8 C 84 % 1016,4 hPa 0,0 l/m 6,6 km/h (2 Bft) NO 40 0 min 0,000 mm 0,9 UV-I 256 W/m 7,2 C 9,7 C 11,3 km/h (2 Bft) 100,00 %
07.10.2016 12:14 9,8 C 83 % 1016,4 hPa 0,0 l/m 6,0 km/h (2 Bft) N-NO 28 0 min 0,000 mm 0,9 UV-I 249 W/m 7,1 C 9,8 C 9,7 km/h (2 Bft) 100,00 %
07.10.2016 12:16 9,8 C 83 % 1016,4 hPa 0,0 l/m 3,4 km/h (1 Bft) N-NO 15 0 min 0,000 mm 0,9 UV-I 251 W/m 7,1 C 9,8 C 6,4 km/h (2 Bft) 100,00 %
07.10.2016 12:18 9,8 C 83 % 1016,3 hPa 0,0 l/m 5,0 km/h (1 Bft) NO 49 0 min 0,000 mm 1,0 UV-I 255 W/m 7,1 C 9,8 C 8,0 km/h (2 Bft) 97,87 %
07.10.2016 12:20 9,8 C 84 % 1016,4 hPa 0,0 l/m 4,4 km/h (1 Bft) NO 44 0 min 0,000 mm 1,0 UV-I 253 W/m 7,2 C 9,8 C 8,0 km/h (2 Bft) 100,00 %
07.10.2016 12:22 9,9 C 85 % 1016,4 hPa 0,0 l/m 3,9 km/h (1 Bft) O-NO 74 0 min 0,000 mm 1,0 UV-I 238 W/m 7,5 C 9,9 C 4,8 km/h (1 Bft) 100,00 %
07.10.2016 12:24 9,9 C 83 % 1016,4 hPa 0,0 l/m 3,0 km/h (1 Bft) O-NO 76 0 min 0,000 mm 0,9 UV-I 222 W/m 7,2 C 9,9 C 4,8 km/h (1 Bft) 97,87 %
07.10.2016 12:26 9,9 C 84 % 1016,4 hPa 0,0 l/m 3,4 km/h (1 Bft) O 82 0 min 0,000 mm 0,9 UV-I 210 W/m 7,3 C 9,9 C 4,8 km/h (1 Bft) 100,00 %
07.10.2016 12:28 9,9 C 83 % 1016,4 hPa 0,0 l/m 5,5 km/h (1 Bft) O 94 0 min 0,000 mm 0,9 UV-I 209 W/m 7,2 C 9,9 C 9,7 km/h (2 Bft) 100,00 %
07.10.2016 12:30 9,9 C 83 % 1016,4 hPa 0,0 l/m 1,8 km/h (1 Bft) O 94 0 min 0,000 mm 0,9 UV-I 205 W/m 7,2 C 9,9 C 4,8 km/h (1 Bft) 100,00 %
07.10.2016 12:32 9,9 C 83 % 1016,3 hPa 0,0 l/m 5,2 km/h (1 Bft) O-NO 57 0 min 0,000 mm 0,8 UV-I 189 W/m 7,2 C 9,9 C 9,7 km/h (2 Bft) 100,00 %
07.10.2016 12:34 9,8 C 85 % 1016,4 hPa 0,0 l/m 13,4 km/h (3 Bft) O 82 0 min 0,000 mm 0,7 UV-I 175 W/m 7,4 C 5,6 C 24,1 km/h (4 Bft) 100,00 %
07.10.2016 12:36 9,7 C 86 % 1016,4 hPa 0,0 l/m 14,7 km/h (3 Bft) NO 46 0 min 0,000 mm 0,7 UV-I 162 W/m 7,5 C 4,9 C 19,3 km/h (3 Bft) 100,00 %
07.10.2016 12:38 9,4 C 86 % 1016,4 hPa 0,0 l/m 17,7 km/h (3 Bft) O 80 0 min 0,000 mm 0,7 UV-I 159 W/m 7,2 C 3,3 C 24,1 km/h (4 Bft) 98,11 %
07.10.2016 12:40 9,1 C 86 % 1016,4 hPa 0,0 l/m 17,4 km/h (3 Bft) O-NO 64 0 min 0,000 mm 0,7 UV-I 151 W/m 6,9 C 3,1 C 20,9 km/h (4 Bft) 100,00 %
07.10.2016 12:42 8,9 C 88 % 1016,4 hPa 0,0 l/m 16,4 km/h (3 Bft) O 99 0 min 0,000 mm 0,7 UV-I 148 W/m 7,0 C 3,2 C 22,5 km/h (4 Bft) 100,00 %
07.10.2016 12:44 8,8 C 89 % 1016,4 hPa 0,0 l/m 13,3 km/h (3 Bft) O-NO 60 0 min 0,000 mm 0,7 UV-I 149 W/m 7,1 C 4,5 C 19,3 km/h (3 Bft) 100,00 %
07.10.2016 12:46 8,8 C 89 % 1016,4 hPa 0,0 l/m 13,2 km/h (3 Bft) O-NO 73 0 min 0,000 mm 0,8 UV-I 160 W/m 7,1 C 4,5 C 17,7 km/h (3 Bft) 98,21 %
07.10.2016 12:48 8,7 C 90 % 1016,4 hPa 0,0 l/m 14,3 km/h (3 Bft) O-NO 72 0 min 0,000 mm 0,8 UV-I 176 W/m 7,2 C 3,9 C 19,3 km/h (3 Bft) 100,00 %
07.10.2016 12:50 8,6 C 90 % 1016,5 hPa 0,0 l/m 12,5 km/h (3 Bft) O-NO 70 0 min 0,000 mm 0,9 UV-I 187 W/m 7,1 C 4,6 C 16,1 km/h (3 Bft) 100,00 %
07.10.2016 12:52 8,5 C 91 % 1016,5 hPa 0,0 l/m 11,6 km/h (2 Bft) O 82 0 min 0,000 mm 0,9 UV-I 192 W/m 7,1 C 5,0 C 17,7 km/h (3 Bft) 100,00 %
07.10.2016 12:54 8,6 C 91 % 1016,5 hPa 0,0 l/m 9,5 km/h (2 Bft) O-NO 71 0 min 0,000 mm 0,9 UV-I 193 W/m 7,2 C 6,4 C 16,1 km/h (3 Bft) 97,87 %
07.10.2016 12:56 8,6 C 92 % 1016,5 hPa 0,0 l/m 10,0 km/h (2 Bft) O-NO 68 0 min 0,000 mm 0,9 UV-I 205 W/m 7,4 C 6,0 C 16,1 km/h (3 Bft) 100,00 %
07.10.2016 12:58 8,6 C 92 % 1016,6 hPa 0,0 l/m 11,8 km/h (2 Bft) O-NO 77 0 min 0,000 mm 0,9 UV-I 212 W/m 7,4 C 5,0 C 16,1 km/h (3 Bft) 97,96 %
07.10.2016 13:00 8,6 C 91 % 1016,6 hPa 0,0 l/m 13,0 km/h (3 Bft) O-NO 66 0 min 0,102 mm 0,9 UV-I 215 W/m 7,2 C 4,4 C 17,7 km/h (3 Bft) 100,00 %
07.10.2016 13:02 8,4 C 91 % 1016,6 hPa 0,0 l/m 14,8 km/h (3 Bft) O 80 0 min 0,000 mm 0,9 UV-I 217 W/m 7,0 C 3,3 C 19,3 km/h (3 Bft) 100,00 %
07.10.2016 13:04 8,4 C 90 % 1016,6 hPa 0,0 l/m 13,6 km/h (3 Bft) NO 55 0 min 0,000 mm 0,9 UV-I 221 W/m 6,9 C 3,9 C 19,3 km/h (3 Bft) 100,00 %
07.10.2016 13:06 8,3 C 90 % 1016,6 hPa 0,0 l/m 11,3 km/h (2 Bft) O 81 0 min 0,000 mm 0,9 UV-I 224 W/m 6,8 C 4,9 C 14,5 km/h (3 Bft) 100,00 %
07.10.2016 13:08 8,3 C 91 % 1016,6 hPa 0,0 l/m 11,8 km/h (2 Bft) O-NO 72 0 min 0,000 mm 1,0 UV-I 232 W/m 6,9 C 4,7 C 16,1 km/h (3 Bft) 98,08 %
07.10.2016 13:10 8,3 C 91 % 1016,5 hPa 0,0 l/m 9,7 km/h (2 Bft) O-NO 74 0 min 0,000 mm 1,0 UV-I 236 W/m 6,9 C 5,9 C 14,5 km/h (3 Bft) 100,00 %
07.10.2016 13:12 8,3 C 91 % 1016,6 hPa 0,0 l/m 8,7 km/h (2 Bft) O-NO 74 0 min 0,000 mm 0,9 UV-I 229 W/m 6,9 C 6,6 C 12,9 km/h (3 Bft) 100,00 %
07.10.2016 13:14 8,3 C 91 % 1016,6 hPa 0,0 l/m 9,5 km/h (2 Bft) O-NO 59 0 min 0,000 mm 0,9 UV-I 225 W/m 6,9 C 6,0 C 14,5 km/h (3 Bft) 100,00 %
07.10.2016 13:16 8,3 C 91 % 1016,6 hPa 0,0 l/m 12,2 km/h (2 Bft) O 82 0 min 0,000 mm 0,8 UV-I 213 W/m 6,9 C 4,4 C 16,1 km/h (3 Bft) 100,00 %
07.10.2016 13:18 8,3 C 90 % 1016,6 hPa 0,0 l/m 12,7 km/h (3 Bft) O-NO 71 0 min 0,000 mm 0,8 UV-I 187 W/m 6,8 C 4,2 C 17,7 km/h (3 Bft) 100,00 %
07.10.2016 13:20 8,3 C 90 % 1016,6 hPa 0,0 l/m 10,1 km/h (2 Bft) NO 50 0 min 0,000 mm 0,7 UV-I 169 W/m 6,8 C 5,7 C 14,5 km/h (3 Bft) 100,00 %
07.10.2016 13:22 8,3 C 91 % 1016,6 hPa 0,0 l/m 8,4 km/h (2 Bft) O 84 0 min 0,000 mm 0,6 UV-I 163 W/m 6,9 C 6,8 C 12,9 km/h (3 Bft) 100,00 %
07.10.2016 13:24 8,3 C 91 % 1016,6 hPa 0,0 l/m 8,4 km/h (2 Bft) O 86 0 min 0,000 mm 0,6 UV-I 159 W/m 6,9 C 6,8 C 11,3 km/h (2 Bft) 98,11 %
07.10.2016 13:26 8,3 C 90 % 1016,6 hPa 0,0 l/m 10,2 km/h (2 Bft) O-NO 71 0 min 0,000 mm 0,6 UV-I 156 W/m 6,8 C 5,6 C 14,5 km/h (3 Bft) 98,00 %
07.10.2016 13:28 8,3 C 91 % 1016,6 hPa 0,0 l/m 10,6 km/h (2 Bft) NO 55 0 min 0,000 mm 0,6 UV-I 156 W/m 6,9 C 5,4 C 17,7 km/h (3 Bft) 97,37 %
07.10.2016 13:30 8,3 C 90 % 1016,6 hPa 0,0 l/m 9,9 km/h (2 Bft) O-NO 66 0 min 0,000 mm 0,6 UV-I 156 W/m 6,8 C 5,8 C 14,5 km/h (3 Bft) 96,00 %
07.10.2016 13:32 8,3 C 90 % 1016,6 hPa 0,0 l/m 11,5 km/h (2 Bft) O-NO 77 0 min 0,000 mm 0,6 UV-I 150 W/m 6,8 C 4,8 C 16,1 km/h (3 Bft) 98,00 %
07.10.2016 13:34 8,3 C 90 % 1016,6 hPa 0,0 l/m 8,6 km/h (2 Bft) O-NO 72 0 min 0,000 mm 0,6 UV-I 147 W/m 6,8 C 6,6 C 14,5 km/h (3 Bft) 97,56 %
07.10.2016 13:36 8,3 C 90 % 1016,7 hPa 0,0 l/m 8,3 km/h (2 Bft) O 98 0 min 0,000 mm 0,6 UV-I 149 W/m 6,8 C 6,9 C 12,9 km/h (3 Bft) 95,12 %
07.10.2016 13:38 8,3 C 91 % 1016,7 hPa 0,0 l/m 8,2 km/h (2 Bft) O-SO 104 0 min 0,000 mm 0,6 UV-I 155 W/m 6,9 C 6,9 C 11,3 km/h (2 Bft) 98,00 %
07.10.2016 13:40 8,3 C 91 % 1016,6 hPa 0,0 l/m 8,3 km/h (2 Bft) O-NO 67 0 min 0,000 mm 0,7 UV-I 164 W/m 6,9 C 6,9 C 14,5 km/h (3 Bft) 98,11 %
07.10.2016 13:42 8,3 C 91 % 1016,7 hPa 0,0 l/m 6,6 km/h (2 Bft) O-NO 69 0 min 0,000 mm 0,7 UV-I 168 W/m 6,9 C 8,2 C 11,3 km/h (2 Bft) 93,62 %
07.10.2016 13:44 8,4 C 91 % 1016,7 hPa 0,0 l/m 7,5 km/h (2 Bft) O 87 0 min 0,000 mm 0,7 UV-I 167 W/m 7,0 C 7,5 C 12,9 km/h (3 Bft) 97,87 %
07.10.2016 13:46 8,4 C 91 % 1016,7 hPa 0,0 l/m 7,3 km/h (2 Bft) O-NO 72 0 min 0,000 mm 0,7 UV-I 163 W/m 7,0 C 7,7 C 9,7 km/h (2 Bft) 98,00 %
07.10.2016 13:48 8,4 C 91 % 1016,7 hPa 0,0 l/m 5,3 km/h (1 Bft) NO 52 0 min 0,000 mm 0,6 UV-I 153 W/m 7,0 C 8,4 C 11,3 km/h (2 Bft) 97,44 %
07.10.2016 13:50 8,4 C 91 % 1016,7 hPa 0,0 l/m 5,8 km/h (2 Bft) NO 44 0 min 0,000 mm 0,6 UV-I 141 W/m 7,0 C 8,4 C 9,7 km/h (2 Bft) 96,00 %
07.10.2016 13:52 8,5 C 91 % 1016,7 hPa 0,0 l/m 10,0 km/h (2 Bft) O 92 0 min 0,000 mm 0,6 UV-I 135 W/m 7,1 C 5,9 C 17,7 km/h (3 Bft) 98,11 %
07.10.2016 13:54 8,5 C 90 % 1016,7 hPa 0,0 l/m 10,1 km/h (2 Bft) O 82 0 min 0,000 mm 0,6 UV-I 148 W/m 7,0 C 5,9 C 16,1 km/h (3 Bft) 97,56 %
07.10.2016 13:56 8,4 C 90 % 1016,7 hPa 0,0 l/m 11,8 km/h (2 Bft) O-NO 69 0 min 0,000 mm 0,6 UV-I 149 W/m 6,9 C 4,8 C 16,1 km/h (3 Bft) 97,87 %
07.10.2016 13:58 8,4 C 89 % 1016,7 hPa 0,0 l/m 11,5 km/h (2 Bft) O-NO 58 0 min 0,000 mm 0,6 UV-I 143 W/m 6,7 C 4,9 C 14,5 km/h (3 Bft) 97,87 %
07.10.2016 14:00 8,4 C 89 % 1016,8 hPa 0,0 l/m 8,1 km/h (2 Bft) NO 54 0 min 0,076 mm 0,6 UV-I 141 W/m 6,7 C 7,1 C 12,9 km/h (3 Bft) 100,00 %
07.10.2016 14:02 8,4 C 89 % 1016,8 hPa 0,0 l/m 7,6 km/h (2 Bft) O-NO 63 0 min 0,000 mm 0,6 UV-I 141 W/m 6,7 C 7,5 C 9,7 km/h (2 Bft) 97,37 %
07.10.2016 14:04 8,3 C 89 % 1016,7 hPa 0,0 l/m 8,4 km/h (2 Bft) NO 52 0 min 0,000 mm 0,6 UV-I 141 W/m 6,6 C 6,8 C 12,9 km/h (3 Bft) 100,00 %
07.10.2016 14:06 8,3 C 89 % 1016,7 hPa 0,0 l/m 7,0 km/h (2 Bft) O 84 0 min 0,000 mm 0,6 UV-I 141 W/m 6,6 C 7,8 C 9,7 km/h (2 Bft) 96,00 %
07.10.2016 14:08 8,4 C 89 % 1016,7 hPa 0,0 l/m 6,8 km/h (2 Bft) O-NO 67 0 min 0,000 mm 0,6 UV-I 145 W/m 6,7 C 8,1 C 9,7 km/h (2 Bft) 97,56 %
07.10.2016 14:10 8,4 C 89 % 1016,7 hPa 0,0 l/m 6,8 km/h (2 Bft) O-NO 68 0 min 0,000 mm 0,6 UV-I 150 W/m 6,7 C 8,1 C 9,7 km/h (2 Bft) 100,00 %
07.10.2016 14:12 8,4 C 89 % 1016,7 hPa 0,0 l/m 6,2 km/h (2 Bft) N-NO 32 0 min 0,000 mm 0,6 UV-I 148 W/m 6,7 C 8,4 C 9,7 km/h (2 Bft) 100,00 %
07.10.2016 14:14 8,4 C 89 % 1016,7 hPa 0,0 l/m 7,6 km/h (2 Bft) O-NO 60 0 min 0,000 mm 0,6 UV-I 143 W/m 6,7 C 7,5 C 9,7 km/h (2 Bft) 97,56 %
07.10.2016 14:16 8,4 C 89 % 1016,7 hPa 0,0 l/m 6,8 km/h (2 Bft) N-NO 32 0 min 0,000 mm 0,6 UV-I 141 W/m 6,7 C 8,1 C 9,7 km/h (2 Bft) 100,00 %
07.10.2016 14:18 8,5 C 89 % 1016,6 hPa 0,0 l/m 7,5 km/h (2 Bft) NO 56 0 min 0,000 mm 0,5 UV-I 140 W/m 6,8 C 7,6 C 11,3 km/h (2 Bft) 100,00 %
07.10.2016 14:20 8,5 C 88 % 1016,6 hPa 0,0 l/m 7,0 km/h (2 Bft) O-NO 71 0 min 0,000 mm 0,5 UV-I 135 W/m 6,6 C 8,0 C 9,7 km/h (2 Bft) 100,00 %
07.10.2016 14:22 8,5 C 88 % 1016,6 hPa 0,0 l/m 6,8 km/h (2 Bft) NO 46 0 min 0,000 mm 0,5 UV-I 130 W/m 6,6 C 8,2 C 9,7 km/h (2 Bft) 100,00 %
07.10.2016 14:24 8,5 C 88 % 1016,6 hPa 0,0 l/m 5,8 km/h (2 Bft) NO 40 0 min 0,000 mm 0,5 UV-I 124 W/m 6,6 C 8,5 C 9,7 km/h (2 Bft) 97,56 %
07.10.2016 14:26 8,5 C 88 % 1016,6 hPa 0,0 l/m 7,6 km/h (2 Bft) NO 36 0 min 0,000 mm 0,2 UV-I 118 W/m 6,6 C 7,6 C 11,3 km/h (2 Bft) 100,00 %
07.10.2016 14:28 8,5 C 88 % 1016,6 hPa 0,0 l/m 5,5 km/h (1 Bft) O-NO 57 0 min 0,000 mm 0,0 UV-I 115 W/m 6,6 C 8,5 C 8,0 km/h (2 Bft) 100,00 %
07.10.2016 14:30 8,5 C 88 % 1016,6 hPa 0,0 l/m 6,4 km/h (2 Bft) NO 42 0 min 0,000 mm 0,0 UV-I 113 W/m 6,6 C 8,5 C 11,3 km/h (2 Bft) 100,00 %
07.10.2016 14:32 8,6 C 89 % 1016,6 hPa 0,0 l/m 7,1 km/h (2 Bft) O-NO 57 0 min 0,000 mm 0,0 UV-I 111 W/m 6,9 C 8,1 C 11,3 km/h (2 Bft) 100,00 %
07.10.2016 14:34 8,6 C 89 % 1016,6 hPa 0,0 l/m 5,2 km/h (1 Bft) NO 53 0 min 0,000 mm 0,0 UV-I 110 W/m 6,9 C 8,6 C 8,0 km/h (2 Bft) 100,00 %
07.10.2016 14:36 8,6 C 89 % 1016,6 hPa 0,0 l/m 5,1 km/h (1 Bft) O-NO 59 0 min 0,000 mm 0,0 UV-I 108 W/m 6,9 C 8,6 C 8,0 km/h (2 Bft) 97,73 %
07.10.2016 14:38 8,7 C 89 % 1016,6 hPa 0,0 l/m 5,7 km/h (1 Bft) N-NO 28 0 min 0,000 mm 0,0 UV-I 107 W/m 7,0 C 8,7 C 8,0 km/h (2 Bft) 100,00 %
07.10.2016 14:40 8,6 C 88 % 1016,6 hPa 0,0 l/m 6,2 km/h (2 Bft) O-NO 67 0 min 0,000 mm 0,0 UV-I 105 W/m 6,7 C 8,6 C 8,0 km/h (2 Bft) 100,00 %
07.10.2016 14:42 8,6 C 88 % 1016,6 hPa 0,0 l/m 6,8 km/h (2 Bft) NO 53 0 min 0,000 mm 0,0 UV-I 104 W/m 6,7 C 8,3 C 9,7 km/h (2 Bft) 98,11 %
07.10.2016 14:44 8,6 C 88 % 1016,6 hPa 0,0 l/m 6,6 km/h (2 Bft) N 355 0 min 0,000 mm 0,0 UV-I 104 W/m 6,7 C 8,5 C 11,3 km/h (2 Bft) 97,87 %
07.10.2016 14:46 8,6 C 89 % 1016,6 hPa 0,0 l/m 6,9 km/h (2 Bft) O-NO 65 0 min 0,000 mm 0,0 UV-I 107 W/m 6,9 C 8,2 C 9,7 km/h (2 Bft) 100,00 %
07.10.2016 14:48 8,6 C 88 % 1016,6 hPa 0,0 l/m 7,2 km/h (2 Bft) NO 44 0 min 0,000 mm 0,0 UV-I 109 W/m 6,7 C 8,0 C 11,3 km/h (2 Bft) 100,00 %
07.10.2016 14:50 8,6 C 88 % 1016,6 hPa 0,0 l/m 7,5 km/h (2 Bft) O-NO 65 0 min 0,000 mm 0,0 UV-I 106 W/m 6,7 C 7,8 C 9,7 km/h (2 Bft) 100,00 %
07.10.2016 14:52 8,6 C 88 % 1016,6 hPa 0,0 l/m 6,1 km/h (2 Bft) NO 54 0 min 0,000 mm 0,0 UV-I 105 W/m 6,7 C 8,6 C 8,0 km/h (2 Bft) 100,00 %
07.10.2016 14:54 8,6 C 88 % 1016,6 hPa 0,0 l/m 7,7 km/h (2 Bft) NO 51 0 min 0,000 mm 0,0 UV-I 103 W/m 6,7 C 7,6 C 12,9 km/h (3 Bft) 100,00 %
07.10.2016 14:56 8,6 C 88 % 1016,6 hPa 0,0 l/m 6,6 km/h (2 Bft) NO 53 0 min 0,000 mm 0,0 UV-I 101 W/m 6,7 C 8,5 C 9,7 km/h (2 Bft) 97,87 %
07.10.2016 14:58 8,6 C 88 % 1016,7 hPa 0,0 l/m 8,1 km/h (2 Bft) O-NO 59 0 min 0,000 mm 0,0 UV-I 100 W/m 6,7 C 7,3 C 11,3 km/h (2 Bft) 100,00 %
07.10.2016 15:00 8,6 C 87 % 1016,6 hPa 0,0 l/m 7,9 km/h (2 Bft) NO 53 0 min 0,051 mm 0,0 UV-I 102 W/m 6,6 C 7,5 C 11,3 km/h (2 Bft) 100,00 %
07.10.2016 15:02 8,6 C 87 % 1016,7 hPa 0,0 l/m 8,0 km/h (2 Bft) NO 49 0 min 0,000 mm 0,0 UV-I 104 W/m 6,6 C 7,4 C 11,3 km/h (2 Bft) 100,00 %
07.10.2016 15:04 8,6 C 88 % 1016,7 hPa 0,0 l/m 9,4 km/h (2 Bft) NO 42 0 min 0,000 mm 0,0 UV-I 105 W/m 6,7 C 6,4 C 14,5 km/h (3 Bft) 100,00 %
07.10.2016 15:06 8,6 C 88 % 1016,7 hPa 0,0 l/m 8,6 km/h (2 Bft) NO 44 0 min 0,000 mm 0,0 UV-I 105 W/m 6,7 C 7,0 C 12,9 km/h (3 Bft) 100,00 %
07.10.2016 15:08 8,6 C 88 % 1016,7 hPa 0,0 l/m 6,3 km/h (2 Bft) O-NO 65 0 min 0,000 mm 0,0 UV-I 105 W/m 6,7 C 8,6 C 8,0 km/h (2 Bft) 100,00 %
07.10.2016 15:10 8,6 C 87 % 1016,7 hPa 0,0 l/m 5,7 km/h (1 Bft) O-NO 61 0 min 0,000 mm 0,0 UV-I 105 W/m 6,6 C 8,6 C 8,0 km/h (2 Bft) 100,00 %
07.10.2016 15:12 8,6 C 87 % 1016,7 hPa 0,0 l/m 6,7 km/h (2 Bft) N-NO 20 0 min 0,000 mm 0,0 UV-I 104 W/m 6,6 C 8,4 C 9,7 km/h (2 Bft) 100,00 %
07.10.2016 15:14 8,6 C 88 % 1016,7 hPa 0,0 l/m 7,2 km/h (2 Bft) NO 34 0 min 0,000 mm 0,0 UV-I 104 W/m 6,7 C 8,0 C 9,7 km/h (2 Bft) 100,00 %
07.10.2016 15:16 8,6 C 88 % 1016,7 hPa 0,0 l/m 7,2 km/h (2 Bft) NO 48 0 min 0,000 mm 0,0 UV-I 104 W/m 6,7 C 8,0 C 8,0 km/h (2 Bft) 100,00 %
07.10.2016 15:18 8,6 C 87 % 1016,7 hPa 0,0 l/m 5,6 km/h (1 Bft) NO 53 0 min 0,000 mm 0,0 UV-I 102 W/m 6,6 C 8,6 C 8,0 km/h (2 Bft) 100,00 %
07.10.2016 15:20 8,6 C 88 % 1016,7 hPa 0,0 l/m 4,5 km/h (1 Bft) NO 46 0 min 0,000 mm 0,0 UV-I 101 W/m 6,7 C 8,6 C 8,0 km/h (2 Bft) 100,00 %
07.10.2016 15:22 8,6 C 87 % 1016,8 hPa 0,0 l/m 6,0 km/h (2 Bft) NO 46 0 min 0,000 mm 0,0 UV-I 98 W/m 6,6 C 8,6 C 8,0 km/h (2 Bft) 100,00 %
07.10.2016 15:24 8,6 C 87 % 1016,8 hPa 0,0 l/m 4,8 km/h (1 Bft) NO 55 0 min 0,000 mm 0,0 UV-I 97 W/m 6,6 C 8,6 C 6,4 km/h (2 Bft) 100,00 %
07.10.2016 15:26 8,6 C 87 % 1016,8 hPa 0,0 l/m 5,3 km/h (1 Bft) NO 51 0 min 0,000 mm 0,0 UV-I 98 W/m 6,6 C 8,6 C 8,0 km/h (2 Bft) 98,00 %
07.10.2016 15:28 8,6 C 87 % 1016,7 hPa 0,0 l/m 4,6 km/h (1 Bft) O-NO 69 0 min 0,000 mm 0,0 UV-I 99 W/m 6,6 C 8,6 C 6,4 km/h (2 Bft) 96,00 %
07.10.2016 15:30 8,6 C 87 % 1016,7 hPa 0,0 l/m 3,8 km/h (1 Bft) O-NO 69 0 min 0,000 mm 0,0 UV-I 102 W/m 6,6 C 8,6 C 4,8 km/h (1 Bft) 98,00 %
07.10.2016 15:32 8,6 C 87 % 1016,7 hPa 0,0 l/m 4,7 km/h (1 Bft) NO 55 0 min 0,000 mm 0,0 UV-I 104 W/m 6,6 C 8,6 C 6,4 km/h (2 Bft) 97,87 %
07.10.2016 15:34 8,6 C 88 % 1016,7 hPa 0,0 l/m 4,6 km/h (1 Bft) O-NO 61 0 min 0,000 mm 0,0 UV-I 107 W/m 6,7 C 8,6 C 6,4 km/h (2 Bft) 97,87 %
07.10.2016 15:36 8,6 C 87 % 1016,7 hPa 0,0 l/m 4,1 km/h (1 Bft) NO 56 0 min 0,000 mm 0,0 UV-I 107 W/m 6,6 C 8,6 C 6,4 km/h (2 Bft) 94,74 %
07.10.2016 15:38 8,7 C 87 % 1016,7 hPa 0,0 l/m 4,9 km/h (1 Bft) NO 42 0 min 0,000 mm 0,0 UV-I 107 W/m 6,7 C 8,7 C 6,4 km/h (2 Bft) 96,23 %
07.10.2016 15:40 8,7 C 88 % 1016,7 hPa 0,0 l/m 5,7 km/h (1 Bft) NO 47 0 min 0,000 mm 0,0 UV-I 109 W/m 6,8 C 8,7 C 8,0 km/h (2 Bft) 95,74 %
07.10.2016 15:42 8,7 C 87 % 1016,8 hPa 0,0 l/m 4,5 km/h (1 Bft) O-NO 64 0 min 0,000 mm 0,0 UV-I 110 W/m 6,7 C 8,7 C 6,4 km/h (2 Bft) 96,00 %
07.10.2016 15:44 8,7 C 88 % 1016,7 hPa 0,0 l/m 4,8 km/h (1 Bft) O-NO 69 0 min 0,000 mm 0,0 UV-I 112 W/m 6,8 C 8,7 C 8,0 km/h (2 Bft) 100,00 %
07.10.2016 15:46 8,7 C 87 % 1016,8 hPa 0,0 l/m 4,8 km/h (1 Bft) O-NO 73 0 min 0,000 mm 0,0 UV-I 113 W/m 6,7 C 8,7 C 6,4 km/h (2 Bft) 96,36 %
07.10.2016 15:48 8,7 C 87 % 1016,8 hPa 0,0 l/m 4,8 km/h (1 Bft) NO 51 0 min 0,000 mm 0,0 UV-I 114 W/m 6,7 C 8,7 C 6,4 km/h (2 Bft) 97,22 %
07.10.2016 15:50 8,7 C 87 % 1016,8 hPa 0,0 l/m 6,2 km/h (2 Bft) O-NO 66 0 min 0,000 mm 0,0 UV-I 116 W/m 6,7 C 8,7 C 8,0 km/h (2 Bft) 96,23 %
07.10.2016 15:52 8,7 C 87 % 1016,8 hPa 0,0 l/m 6,2 km/h (2 Bft) O-NO 62 0 min 0,000 mm 0,0 UV-I 123 W/m 6,7 C 8,7 C 9,7 km/h (2 Bft) 100,00 %
07.10.2016 15:54 8,7 C 86 % 1016,8 hPa 0,0 l/m 3,8 km/h (1 Bft) O-NO 59 0 min 0,000 mm 0,0 UV-I 127 W/m 6,5 C 8,7 C 6,4 km/h (2 Bft) 95,38 %
07.10.2016 15:56 8,7 C 87 % 1016,8 hPa 0,0 l/m 1,9 km/h (1 Bft) O 89 0 min 0,000 mm 0,0 UV-I 131 W/m 6,7 C 8,7 C 4,8 km/h (1 Bft) 98,00 %
07.10.2016 15:58 8,7 C 87 % 1016,9 hPa 0,0 l/m 3,4 km/h (1 Bft) O-NO 68 0 min 0,000 mm 0,0 UV-I 134 W/m 6,7 C 8,7 C 6,4 km/h (2 Bft) 97,87 %
07.10.2016 16:00 8,7 C 87 % 1016,8 hPa 0,0 l/m 6,8 km/h (2 Bft) O-NO 68 0 min 0,050 mm 0,0 UV-I 142 W/m 6,7 C 8,4 C 12,9 km/h (3 Bft) 95,74 %
07.10.2016 16:02 8,7 C 87 % 1016,8 hPa 0,0 l/m 5,7 km/h (1 Bft) O-NO 69 0 min 0,000 mm 0,0 UV-I 148 W/m 6,7 C 8,7 C 8,0 km/h (2 Bft) 98,00 %
07.10.2016 16:04 8,7 C 87 % 1016,8 hPa 0,0 l/m 5,9 km/h (2 Bft) O-NO 68 0 min 0,000 mm 0,0 UV-I 148 W/m 6,7 C 8,7 C 8,0 km/h (2 Bft) 100,00 %
07.10.2016 16:06 8,7 C 87 % 1016,8 hPa 0,0 l/m 5,6 km/h (1 Bft) NO 56 0 min 0,000 mm 0,0 UV-I 149 W/m 6,7 C 8,7 C 8,0 km/h (2 Bft) 98,00 %
07.10.2016 16:08 8,7 C 88 % 1016,8 hPa 0,0 l/m 6,0 km/h (2 Bft) O 84 0 min 0,000 mm 0,0 UV-I 149 W/m 6,8 C 8,7 C 8,0 km/h (2 Bft) 98,00 %
07.10.2016 16:10 8,8 C 87 % 1016,9 hPa 0,0 l/m 6,3 km/h (2 Bft) O-NO 63 0 min 0,000 mm 0,0 UV-I 149 W/m 6,8 C 8,8 C 9,7 km/h (2 Bft) 97,87 %
07.10.2016 16:12 8,7 C 87 % 1016,9 hPa 0,0 l/m 5,5 km/h (1 Bft) O-NO 76 0 min 0,000 mm 0,0 UV-I 146 W/m 6,7 C 8,7 C 8,0 km/h (2 Bft) 100,00 %
07.10.2016 16:14 8,7 C 87 % 1016,9 hPa 0,0 l/m 7,0 km/h (2 Bft) NO 49 0 min 0,000 mm 0,0 UV-I 145 W/m 6,7 C 8,2 C 9,7 km/h (2 Bft) 100,00 %
07.10.2016 16:16 8,7 C 87 % 1016,8 hPa 0,0 l/m 7,7 km/h (2 Bft) O-NO 66 0 min 0,000 mm 0,0 UV-I 147 W/m 6,7 C 7,7 C 12,9 km/h (3 Bft) 100,00 %
07.10.2016 16:18 8,7 C 87 % 1016,8 hPa 0,0 l/m 6,1 km/h (2 Bft) O 80 0 min 0,000 mm 0,0 UV-I 143 W/m 6,7 C 8,7 C 8,0 km/h (2 Bft) 98,11 %
07.10.2016 16:20 8,7 C 87 % 1016,8 hPa 0,0 l/m 5,8 km/h (2 Bft) O 82 0 min 0,000 mm 0,0 UV-I 140 W/m 6,7 C 8,7 C 9,7 km/h (2 Bft) 100,00 %
07.10.2016 16:22 8,7 C 87 % 1016,8 hPa 0,0 l/m 6,7 km/h (2 Bft) O-NO 78 0 min 0,000 mm 0,0 UV-I 135 W/m 6,7 C 8,5 C 11,3 km/h (2 Bft) 100,00 %
07.10.2016 16:24 8,7 C 87 % 1016,8 hPa 0,0 l/m 6,6 km/h (2 Bft) O-NO 67 0 min 0,000 mm 0,0 UV-I 127 W/m 6,7 C 8,6 C 8,0 km/h (2 Bft) 100,00 %
07.10.2016 16:26 8,7 C 87 % 1016,8 hPa 0,0 l/m 6,5 km/h (2 Bft) O-NO 68 0 min 0,000 mm 0,0 UV-I 121 W/m 6,7 C 8,6 C 9,7 km/h (2 Bft) 100,00 %
07.10.2016 16:28 8,7 C 88 % 1016,8 hPa 0,0 l/m 4,4 km/h (1 Bft) O 96 0 min 0,000 mm 0,0 UV-I 116 W/m 6,8 C 8,7 C 8,0 km/h (2 Bft) 100,00 %
07.10.2016 16:30 8,7 C 88 % 1016,8 hPa 0,0 l/m 4,9 km/h (1 Bft) O-NO 78 0 min 0,000 mm 0,0 UV-I 113 W/m 6,8 C 8,7 C 6,4 km/h (2 Bft) 100,00 %
07.10.2016 16:32 8,7 C 87 % 1016,8 hPa 0,0 l/m 3,4 km/h (1 Bft) O-NO 78 0 min 0,000 mm 0,0 UV-I 108 W/m 6,7 C 8,7 C 6,4 km/h (2 Bft) 100,00 %
07.10.2016 16:34 8,7 C 88 % 1016,8 hPa 0,0 l/m 4,8 km/h (1 Bft) O 94 0 min 0,000 mm 0,0 UV-I 104 W/m 6,8 C 8,7 C 9,7 km/h (2 Bft) 100,00 %
07.10.2016 16:36 8,7 C 88 % 1016,8 hPa 0,0 l/m 5,0 km/h (1 Bft) O 86 0 min 0,000 mm 0,0 UV-I 100 W/m 6,8 C 8,7 C 6,4 km/h (2 Bft) 100,00 %
07.10.2016 16:38 8,7 C 88 % 1016,8 hPa 0,0 l/m 4,4 km/h (1 Bft) O 83 0 min 0,000 mm 0,0 UV-I 98 W/m 6,8 C 8,7 C 6,4 km/h (2 Bft) 100,00 %
07.10.2016 16:40 8,8 C 88 % 1016,8 hPa 0,0 l/m 6,3 km/h (2 Bft) O 79 0 min 0,000 mm 0,0 UV-I 95 W/m 6,9 C 8,8 C 9,7 km/h (2 Bft) 98,00 %
07.10.2016 16:42 8,7 C 87 % 1016,8 hPa 0,0 l/m 3,8 km/h (1 Bft) O 79 0 min 0,000 mm 0,0 UV-I 91 W/m 6,7 C 8,7 C 6,4 km/h (2 Bft) 100,00 %
07.10.2016 16:44 8,7 C 87 % 1016,8 hPa 0,0 l/m 2,2 km/h (1 Bft) O 79 0 min 0,000 mm 0,0 UV-I 87 W/m 6,7 C 8,7 C 3,2 km/h (1 Bft) 100,00 %
07.10.2016 16:46 8,8 C 88 % 1016,9 hPa 0,0 l/m 3,6 km/h (1 Bft) O 87 0 min 0,000 mm 0,0 UV-I 83 W/m 6,9 C 8,8 C 6,4 km/h (2 Bft) 97,37 %
07.10.2016 16:48 8,8 C 88 % 1016,8 hPa 0,0 l/m 2,1 km/h (1 Bft) O 92 0 min 0,000 mm 0,0 UV-I 77 W/m 6,9 C 8,8 C 4,8 km/h (1 Bft) 97,87 %
07.10.2016 16:50 8,8 C 88 % 1016,9 hPa 0,0 l/m 3,4 km/h (1 Bft) O-NO 71 0 min 0,000 mm 0,0 UV-I 72 W/m 6,9 C 8,8 C 4,8 km/h (1 Bft) 100,00 %
07.10.2016 16:52 8,8 C 89 % 1016,9 hPa 0,0 l/m 2,7 km/h (1 Bft) O-NO 68 0 min 0,000 mm 0,0 UV-I 67 W/m 7,1 C 8,8 C 4,8 km/h (1 Bft) 100,00 %
07.10.2016 16:54 8,8 C 88 % 1017,0 hPa 0,0 l/m 2,6 km/h (1 Bft) NO 50 0 min 0,000 mm 0,0 UV-I 63 W/m 6,9 C 8,8 C 6,4 km/h (2 Bft) 100,00 %
07.10.2016 16:56 8,8 C 87 % 1016,9 hPa 0,0 l/m 4,9 km/h (1 Bft) O-NO 69 0 min 0,000 mm 0,0 UV-I 61 W/m 6,8 C 8,8 C 8,0 km/h (2 Bft) 100,00 %
07.10.2016 16:58 8,7 C 87 % 1016,9 hPa 0,0 l/m 5,4 km/h (1 Bft) O-NO 67 0 min 0,000 mm 0,0 UV-I 59 W/m 6,7 C 8,7 C 6,4 km/h (2 Bft) 98,11 %
07.10.2016 17:00 8,7 C 87 % 1016,9 hPa 0,0 l/m 3,7 km/h (1 Bft) O-NO 67 0 min 0,000 mm 0,0 UV-I 57 W/m 6,7 C 8,7 C 6,4 km/h (2 Bft) 100,00 %
07.10.2016 17:02 8,7 C 87 % 1016,9 hPa 0,0 l/m 3,1 km/h (1 Bft) O 86 0 min 0,051 mm 0,0 UV-I 56 W/m 6,7 C 8,7 C 6,4 km/h (2 Bft) 97,87 %
07.10.2016 17:04 8,7 C 88 % 1016,9 hPa 0,0 l/m 2,8 km/h (1 Bft) O 86 0 min 0,000 mm 0,0 UV-I 56 W/m 6,8 C 8,7 C 4,8 km/h (1 Bft) 96,00 %
07.10.2016 17:06 8,7 C 88 % 1016,9 hPa 0,0 l/m 4,1 km/h (1 Bft) O 88 0 min 0,000 mm 0,0 UV-I 54 W/m 6,8 C 8,7 C 6,4 km/h (2 Bft) 100,00 %
07.10.2016 17:08 8,7 C 88 % 1016,9 hPa 0,0 l/m 4,0 km/h (1 Bft) O 88 0 min 0,000 mm 0,0 UV-I 53 W/m 6,8 C 8,7 C 6,4 km/h (2 Bft) 100,00 %
07.10.2016 17:10 8,7 C 88 % 1017,0 hPa 0,0 l/m 2,7 km/h (1 Bft) O 88 0 min 0,000 mm 0,0 UV-I 50 W/m 6,8 C 8,7 C 4,8 km/h (1 Bft) 98,00 %
07.10.2016 17:12 8,7 C 87 % 1017,0 hPa 0,0 l/m 3,0 km/h (1 Bft) O 88 0 min 0,000 mm 0,0 UV-I 49 W/m 6,7 C 8,7 C 4,8 km/h (1 Bft) 100,00 %
07.10.2016 17:14 8,7 C 87 % 1017,0 hPa 0,0 l/m 3,2 km/h (1 Bft) O 88 0 min 0,000 mm 0,0 UV-I 47 W/m 6,7 C 8,7 C 4,8 km/h (1 Bft) 100,00 %
07.10.2016 17:16 8,7 C 87 % 1017,0 hPa 0,0 l/m 1,8 km/h (1 Bft) O 88 0 min 0,000 mm 0,0 UV-I 46 W/m 6,7 C 8,7 C 3,2 km/h (1 Bft) 97,37 %
07.10.2016 17:18 8,7 C 87 % 1017,0 hPa 0,0 l/m 2,6 km/h (1 Bft) O 88 0 min 0,000 mm 0,0 UV-I 42 W/m 6,7 C 8,7 C 4,8 km/h (1 Bft) 100,00 %
07.10.2016 17:20 8,7 C 87 % 1017,0 hPa 0,0 l/m 3,0 km/h (1 Bft) O 88 0 min 0,000 mm 0,0 UV-I 40 W/m 6,7 C 8,7 C 4,8 km/h (1 Bft) 100,00 %
07.10.2016 17:22 8,7 C 87 % 1017,0 hPa 0,0 l/m 3,8 km/h (1 Bft) O 88 0 min 0,000 mm 0,0 UV-I 40 W/m 6,7 C 8,7 C 6,4 km/h (2 Bft) 97,37 %
07.10.2016 17:24 8,6 C 87 % 1017,0 hPa 0,0 l/m 3,7 km/h (1 Bft) O 88 0 min 0,000 mm 0,0 UV-I 39 W/m 6,6 C 8,6 C 4,8 km/h (1 Bft) 100,00 %
07.10.2016 17:26 8,6 C 87 % 1017,0 hPa 0,0 l/m 3,0 km/h (1 Bft) O 88 0 min 0,000 mm 0,0 UV-I 37 W/m 6,6 C 8,6 C 4,8 km/h (1 Bft) 97,87 %
07.10.2016 17:28 8,6 C 88 % 1017,0 hPa 0,0 l/m 2,2 km/h (1 Bft) O 88 0 min 0,000 mm 0,0 UV-I 35 W/m 6,7 C 8,6 C 3,2 km/h (1 Bft) 94,00 %
07.10.2016 17:30 8,6 C 88 % 1017,0 hPa 0,0 l/m 1,9 km/h (1 Bft) O 88 0 min 0,000 mm 0,0 UV-I 33 W/m 6,7 C 8,6 C 3,2 km/h (1 Bft) 97,87 %
07.10.2016 17:32 8,6 C 88 % 1017,0 hPa 0,0 l/m 2,6 km/h (1 Bft) O 88 0 min 0,000 mm 0,0 UV-I 31 W/m 6,7 C 8,6 C 3,2 km/h (1 Bft) 98,00 %
07.10.2016 17:34 8,6 C 88 % 1017,0 hPa 0,0 l/m 1,7 km/h (1 Bft) O 88 0 min 0,000 mm 0,0 UV-I 29 W/m 6,7 C 8,6 C 3,2 km/h (1 Bft) 97,87 %
07.10.2016 17:36 8,6 C 88 % 1016,9 hPa 0,0 l/m 2,5 km/h (1 Bft) O 88 0 min 0,000 mm 0,0 UV-I 26 W/m 6,7 C 8,6 C 3,2 km/h (1 Bft) 97,87 %
07.10.2016 17:38 8,6 C 88 % 1017,0 hPa 0,0 l/m 2,0 km/h (1 Bft) O 88 0 min 0,000 mm 0,0 UV-I 24 W/m 6,7 C 8,6 C 3,2 km/h (1 Bft) 95,74 %
07.10.2016 17:40 8,6 C 88 % 1017,0 hPa 0,0 l/m 2,3 km/h (1 Bft) O 88 0 min 0,000 mm 0,0 UV-I 21 W/m 6,7 C 8,6 C 3,2 km/h (1 Bft) 97,22 %
07.10.2016 17:42 8,6 C 88 % 1017,0 hPa 0,0 l/m 2,0 km/h (1 Bft) O 88 0 min 0,000 mm 0,0 UV-I 19 W/m 6,7 C 8,6 C 3,2 km/h (1 Bft) 98,00 %
07.10.2016 17:44 8,6 C 88 % 1017,0 hPa 0,0 l/m 2,5 km/h (1 Bft) O 88 0 min 0,000 mm 0,0 UV-I 17 W/m 6,7 C 8,6 C 4,8 km/h (1 Bft) 97,87 %
07.10.2016 17:46 8,6 C 88 % 1017,1 hPa 0,0 l/m 1,5 km/h (1 Bft) O 88 0 min 0,000 mm 0,0 UV-I 15 W/m 6,7 C 8,6 C 3,2 km/h (1 Bft) 94,00 %
07.10.2016 17:48 8,6 C 88 % 1017,0 hPa 0,0 l/m 2,2 km/h (1 Bft) O 88 0 min 0,000 mm 0,0 UV-I 13 W/m 6,7 C 8,6 C 3,2 km/h (1 Bft) 95,12 %
07.10.2016 17:50 8,6 C 88 % 1017,1 hPa 0,0 l/m 1,4 km/h (1 Bft) O 88 0 min 0,000 mm 0,0 UV-I 12 W/m 6,7 C 8,6 C 3,2 km/h (1 Bft) 98,21 %
07.10.2016 17:52 8,6 C 88 % 1017,1 hPa 0,0 l/m 0,7 km/h (0 Bft) O 88 0 min 0,000 mm 0,0 UV-I 12 W/m 6,7 C 8,6 C 3,2 km/h (1 Bft) 97,87 %
07.10.2016 17:54 8,6 C 88 % 1017,2 hPa 0,0 l/m 1,1 km/h (1 Bft) O 88 0 min 0,000 mm 0,0 UV-I 11 W/m 6,7 C 8,6 C 3,2 km/h (1 Bft) 98,00 %
07.10.2016 17:56 8,6 C 88 % 1017,2 hPa 0,0 l/m 1,9 km/h (1 Bft) O 88 0 min 0,000 mm 0,0 UV-I 11 W/m 6,7 C 8,6 C 3,2 km/h (1 Bft) 97,87 %
07.10.2016 17:58 8,6 C 89 % 1017,2 hPa 0,0 l/m 2,6 km/h (1 Bft) O 88 0 min 0,000 mm 0,0 UV-I 11 W/m 6,9 C 8,6 C 4,8 km/h (1 Bft) 97,37 %
07.10.2016 18:00 8,5 C 89 % 1017,2 hPa 0,0 l/m 2,9 km/h (1 Bft) O 88 0 min 0,026 mm 0,0 UV-I 11 W/m 6,8 C 8,5 C 4,8 km/h (1 Bft) 96,23 %
07.10.2016 18:03 8,5 C 89 % 1017,2 hPa 0,0 l/m 2,7 km/h (1 Bft) O 88 0 min 0,000 mm 0,0 UV-I 11 W/m 6,8 C 8,5 C 3,2 km/h (1 Bft) 100,00 %
07.10.2016 18:04 8,5 C 89 % 1017,2 hPa 0,0 l/m 2,5 km/h (1 Bft) O 88 0 min 0,000 mm 0,0 UV-I 9 W/m 6,8 C 8,5 C 4,8 km/h (1 Bft) 100,00 %
07.10.2016 18:06 8,4 C 89 % 1017,2 hPa 0,0 l/m 1,5 km/h (1 Bft) O 88 0 min 0,000 mm 0,0 UV-I 9 W/m 6,7 C 8,4 C 3,2 km/h (1 Bft) 98,00 %
07.10.2016 18:08 8,4 C 89 % 1017,2 hPa 0,0 l/m 1,4 km/h (1 Bft) O 88 0 min 0,000 mm 0,0 UV-I 9 W/m 6,7 C 8,4 C 3,2 km/h (1 Bft) 97,87 %
07.10.2016 18:10 8,4 C 89 % 1017,2 hPa 0,0 l/m 1,6 km/h (1 Bft) O 88 0 min 0,000 mm 0,0 UV-I 7 W/m 6,7 C 8,4 C 3,2 km/h (1 Bft) 100,00 %
07.10.2016 18:12 8,4 C 89 % 1017,3 hPa 0,0 l/m 1,8 km/h (1 Bft) O 88 0 min 0,000 mm 0,0 UV-I 7 W/m 6,7 C 8,4 C 3,2 km/h (1 Bft) 100,00 %
07.10.2016 18:14 8,4 C 89 % 1017,3 hPa 0,0 l/m 1,9 km/h (1 Bft) O 88 0 min 0,000 mm 0,0 UV-I 6 W/m 6,7 C 8,4 C 3,2 km/h (1 Bft) 100,00 %
07.10.2016 18:16 8,3 C 90 % 1017,3 hPa 0,0 l/m 1,6 km/h (1 Bft) O 88 0 min 0,000 mm 0,0 UV-I 5 W/m 6,8 C 8,3 C 3,2 km/h (1 Bft) 100,00 %
07.10.2016 18:18 8,4 C 90 % 1017,3 hPa 0,0 l/m 2,4 km/h (1 Bft) O 88 0 min 0,000 mm 0,0 UV-I 5 W/m 6,9 C 8,4 C 3,2 km/h (1 Bft) 97,87 %
07.10.2016 18:20 8,4 C 90 % 1017,3 hPa 0,0 l/m 2,6 km/h (1 Bft) O 88 0 min 0,000 mm 0,0 UV-I 2 W/m 6,9 C 8,4 C 4,8 km/h (1 Bft) 100,00 %
07.10.2016 18:22 8,4 C 91 % 1017,3 hPa 0,0 l/m 3,9 km/h (1 Bft) O 88 0 min 0,000 mm 0,0 UV-I 0 W/m 7,0 C 8,4 C 6,4 km/h (2 Bft) 100,00 %
07.10.2016 18:24 8,4 C 91 % 1017,3 hPa 0,0 l/m 2,7 km/h (1 Bft) O 88 0 min 0,000 mm 0,0 UV-I 0 W/m 7,0 C 8,4 C 4,8 km/h (1 Bft) 98,00 %
07.10.2016 18:26 8,3 C 91 % 1017,4 hPa 0,0 l/m 2,8 km/h (1 Bft) O 88 0 min 0,000 mm 0,0 UV-I 0 W/m 6,9 C 8,3 C 4,8 km/h (1 Bft) 100,00 %
07.10.2016 18:28 8,3 C 91 % 1017,4 hPa 0,0 l/m 1,4 km/h (1 Bft) O 88 0 min 0,000 mm 0,0 UV-I 0 W/m 6,9 C 8,3 C 3,2 km/h (1 Bft) 98,00 %
07.10.2016 18:30 8,3 C 91 % 1017,4 hPa 0,0 l/m 1,3 km/h (1 Bft) O 88 0 min 0,000 mm 0,0 UV-I 0 W/m 6,9 C 8,3 C 3,2 km/h (1 Bft) 100,00 %
07.10.2016 18:32 8,3 C 91 % 1017,4 hPa 0,0 l/m 1,7 km/h (1 Bft) O 88 0 min 0,000 mm 0,0 UV-I 0 W/m 6,9 C 8,3 C 3,2 km/h (1 Bft) 100,00 %
07.10.2016 18:34 8,3 C 91 % 1017,4 hPa 0,0 l/m 1,4 km/h (1 Bft) O 88 0 min 0,000 mm 0,0 UV-I 0 W/m 6,9 C 8,3 C 3,2 km/h (1 Bft) 100,00 %
07.10.2016 18:36 8,3 C 91 % 1017,4 hPa 0,0 l/m 1,2 km/h (1 Bft) O 88 0 min 0,000 mm 0,0 UV-I 0 W/m 6,9 C 8,3 C 3,2 km/h (1 Bft) 100,00 %
07.10.2016 18:38 8,3 C 91 % 1017,4 hPa 0,0 l/m 1,2 km/h (1 Bft) O 88 0 min 0,000 mm 0,0 UV-I 0 W/m 6,9 C 8,3 C 3,2 km/h (1 Bft) 100,00 %
07.10.2016 18:40 8,3 C 91 % 1017,4 hPa 0,0 l/m 1,9 km/h (1 Bft) O 88 0 min 0,000 mm 0,0 UV-I 0 W/m 6,9 C 8,3 C 3,2 km/h (1 Bft) 95,74 %
07.10.2016 18:42 8,3 C 92 % 1017,3 hPa 0,0 l/m 3,1 km/h (1 Bft) O 88 0 min 0,000 mm 0,0 UV-I 0 W/m 7,1 C 8,3 C 3,2 km/h (1 Bft) 97,37 %
07.10.2016 18:44 8,2 C 92 % 1017,3 hPa 0,0 l/m 2,0 km/h (1 Bft) O 88 0 min 0,000 mm 0,0 UV-I 0 W/m 7,0 C 8,2 C 3,2 km/h (1 Bft) 100,00 %
07.10.2016 18:46 8,2 C 92 % 1017,3 hPa 0,0 l/m 0,0 km/h (0 Bft) O 88 0 min 0,000 mm 0,0 UV-I 0 W/m 7,0 C 8,2 C 1,6 km/h (1 Bft) 100,00 %
07.10.2016 18:48 8,2 C 92 % 1017,4 hPa 0,0 l/m 0,0 km/h (0 Bft) O 88 0 min 0,000 mm 0,0 UV-I 0 W/m 7,0 C 8,2 C 1,6 km/h (1 Bft) 98,00 %
07.10.2016 18:50 8,2 C 92 % 1017,4 hPa 0,0 l/m 0,5 km/h (0 Bft) O 88 0 min 0,000 mm 0,0 UV-I 0 W/m 7,0 C 8,2 C 1,6 km/h (1 Bft) 100,00 %
07.10.2016 18:52 8,2 C 92 % 1017,4 hPa 0,0 l/m 0,0 km/h (0 Bft) O 88 0 min 0,000 mm 0,0 UV-I 0 W/m 7,0 C 8,2 C 0,0 km/h (0 Bft) 100,00 %
07.10.2016 18:54 8,2 C 92 % 1017,4 hPa 0,0 l/m 0,2 km/h (0 Bft) O 88 0 min 0,000 mm 0,0 UV-I 0 W/m 7,0 C 8,2 C 1,6 km/h (1 Bft) 100,00 %
07.10.2016 18:56 8,1 C 92 % 1017,4 hPa 0,0 l/m 2,0 km/h (1 Bft) O 88 0 min 0,000 mm 0,0 UV-I 0 W/m 6,9 C 8,1 C 3,2 km/h (1 Bft) 100,00 %
07.10.2016 18:58 8,1 C 92 % 1017,4 hPa 0,0 l/m 3,1 km/h (1 Bft) O 88 0 min 0,000 mm 0,0 UV-I 0 W/m 6,9 C 8,1 C 4,8 km/h (1 Bft) 98,00 %
07.10.2016 19:00 8,1 C 92 % 1017,4 hPa 0,0 l/m 3,0 km/h (1 Bft) O 88 0 min 0,000 mm 0,0 UV-I 0 W/m 6,9 C 8,1 C 4,8 km/h (1 Bft) 97,44 %
07.10.2016 19:02 8,0 C 92 % 1017,4 hPa 0,0 l/m 3,2 km/h (1 Bft) O 88 0 min 0,000 mm 0,0 UV-I 0 W/m 6,8 C 8,0 C 4,8 km/h (1 Bft) 100,00 %
07.10.2016 19:04 8,0 C 92 % 1017,4 hPa 0,0 l/m 3,1 km/h (1 Bft) O 84 0 min 0,000 mm 0,0 UV-I 0 W/m 6,8 C 8,0 C 4,8 km/h (1 Bft) 100,00 %
07.10.2016 19:06 8,0 C 92 % 1017,4 hPa 0,0 l/m 2,4 km/h (1 Bft) O 84 0 min 0,000 mm 0,0 UV-I 0 W/m 6,8 C 8,0 C 3,2 km/h (1 Bft) 100,00 %
07.10.2016 19:08 7,9 C 92 % 1017,4 hPa 0,0 l/m 1,7 km/h (1 Bft) O 84 0 min 0,000 mm 0,0 UV-I 0 W/m 6,7 C 7,9 C 3,2 km/h (1 Bft) 100,00 %
07.10.2016 19:10 7,9 C 92 % 1017,4 hPa 0,0 l/m 1,6 km/h (1 Bft) O 84 0 min 0,000 mm 0,0 UV-I 0 W/m 6,7 C 7,9 C 3,2 km/h (1 Bft) 100,00 %
07.10.2016 19:12 7,9 C 92 % 1017,4 hPa 0,0 l/m 0,9 km/h (0 Bft) O 84 0 min 0,000 mm 0,0 UV-I 0 W/m 6,7 C 7,9 C 1,6 km/h (1 Bft) 100,00 %
07.10.2016 19:14 7,9 C 92 % 1017,4 hPa 0,0 l/m 0,8 km/h (0 Bft) O 84 0 min 0,000 mm 0,0 UV-I 0 W/m 6,7 C 7,9 C 1,6 km/h (1 Bft) 100,00 %
07.10.2016 19:16 7,9 C 92 % 1017,5 hPa 0,0 l/m 1,5 km/h (1 Bft) O 84 0 min 0,000 mm 0,0 UV-I 0 W/m 6,7 C 7,9 C 3,2 km/h (1 Bft) 100,00 %
07.10.2016 19:18 7,8 C 93 % 1017,5 hPa 0,0 l/m 1,6 km/h (1 Bft) O 84 0 min 0,000 mm 0,0 UV-I 0 W/m 6,7 C 7,8 C 3,2 km/h (1 Bft) 100,00 %
07.10.2016 19:20 7,8 C 93 % 1017,5 hPa 0,0 l/m 1,2 km/h (1 Bft) O 84 0 min 0,000 mm 0,0 UV-I 0 W/m 6,7 C 7,8 C 1,6 km/h (1 Bft) 97,37 %
07.10.2016 19:22 7,8 C 93 % 1017,5 hPa 0,0 l/m 0,5 km/h (0 Bft) O 84 0 min 0,000 mm 0,0 UV-I 0 W/m 6,7 C 7,8 C 1,6 km/h (1 Bft) 100,00 %
07.10.2016 19:24 7,8 C 93 % 1017,5 hPa 0,0 l/m 0,3 km/h (0 Bft) O 84 0 min 0,000 mm 0,0 UV-I 0 W/m 6,7 C 7,8 C 1,6 km/h (1 Bft) 100,00 %
07.10.2016 19:26 7,8 C 93 % 1017,5 hPa 0,0 l/m 0,6 km/h (0 Bft) O 84 0 min 0,000 mm 0,0 UV-I 0 W/m 6,7 C 7,8 C 1,6 km/h (1 Bft) 100,00 %
07.10.2016 19:28 7,8 C 93 % 1017,5 hPa 0,0 l/m 0,5 km/h (0 Bft) O 84 0 min 0,000 mm 0,0 UV-I 0 W/m 6,7 C 7,8 C 1,6 km/h (1 Bft) 98,11 %
07.10.2016 19:30 7,8 C 93 % 1017,5 hPa 0,0 l/m 1,5 km/h (1 Bft) O 84 0 min 0,000 mm 0,0 UV-I 0 W/m 6,7 C 7,8 C 1,6 km/h (1 Bft) 100,00 %
07.10.2016 19:32 7,7 C 92 % 1017,5 hPa 0,0 l/m 2,1 km/h (1 Bft) O 84 0 min 0,000 mm 0,0 UV-I 0 W/m 6,5 C 7,7 C 3,2 km/h (1 Bft) 95,74 %
07.10.2016 19:34 7,7 C 92 % 1017,4 hPa 0,0 l/m 2,9 km/h (1 Bft) O 84 0 min 0,000 mm 0,0 UV-I 0 W/m 6,5 C 7,7 C 3,2 km/h (1 Bft) 96,00 %
07.10.2016 19:36 7,6 C 93 % 1017,5 hPa 0,0 l/m 2,6 km/h (1 Bft) O 84 0 min 0,000 mm 0,0 UV-I 0 W/m 6,5 C 7,6 C 3,2 km/h (1 Bft) 98,00 %
07.10.2016 19:38 7,6 C 93 % 1017,4 hPa 0,0 l/m 2,9 km/h (1 Bft) O 84 0 min 0,000 mm 0,0 UV-I 0 W/m 6,5 C 7,6 C 4,8 km/h (1 Bft) 98,00 %
07.10.2016 19:40 7,4 C 93 % 1017,4 hPa 0,0 l/m 3,0 km/h (1 Bft) O 84 0 min 0,000 mm 0,0 UV-I 0 W/m 6,3 C 7,4 C 4,8 km/h (1 Bft) 97,44 %
07.10.2016 19:42 7,4 C 93 % 1017,4 hPa 0,0 l/m 0,7 km/h (0 Bft) O 84 0 min 0,000 mm 0,0 UV-I 0 W/m 6,3 C 7,4 C 1,6 km/h (1 Bft) 96,15 %
07.10.2016 19:44 7,4 C 93 % 1017,4 hPa 0,0 l/m 1,6 km/h (1 Bft) O 84 0 min 0,000 mm 0,0 UV-I 0 W/m 6,3 C 7,4 C 3,2 km/h (1 Bft) 97,62 %
07.10.2016 19:46 7,3 C 93 % 1017,4 hPa 0,0 l/m 3,0 km/h (1 Bft) O 84 0 min 0,000 mm 0,0 UV-I 0 W/m 6,2 C 7,3 C 4,8 km/h (1 Bft) 97,87 %
07.10.2016 19:48 7,3 C 93 % 1017,4 hPa 0,0 l/m 3,8 km/h (1 Bft) O 85 0 min 0,000 mm 0,0 UV-I 0 W/m 6,2 C 7,3 C 4,8 km/h (1 Bft) 92,45 %
07.10.2016 19:50 7,3 C 93 % 1017,4 hPa 0,0 l/m 3,1 km/h (1 Bft) O 85 0 min 0,000 mm 0,0 UV-I 0 W/m 6,2 C 7,3 C 4,8 km/h (1 Bft) 97,37 %
07.10.2016 19:52 7,2 C 93 % 1017,4 hPa 0,0 l/m 0,4 km/h (0 Bft) O 84 0 min 0,000 mm 0,0 UV-I 0 W/m 6,1 C 7,2 C 3,2 km/h (1 Bft) 98,00 %
07.10.2016 19:54 7,2 C 93 % 1017,4 hPa 0,0 l/m 1,4 km/h (1 Bft) O 84 0 min 0,000 mm 0,0 UV-I 0 W/m 6,1 C 7,2 C 3,2 km/h (1 Bft) 98,11 %
07.10.2016 19:56 7,2 C 93 % 1017,4 hPa 0,0 l/m 2,2 km/h (1 Bft) O 84 0 min 0,000 mm 0,0 UV-I 0 W/m 6,1 C 7,2 C 3,2 km/h (1 Bft) 97,37 %
07.10.2016 19:58 7,2 C 93 % 1017,5 hPa 0,0 l/m 2,4 km/h (1 Bft) O 85 0 min 0,000 mm 0,0 UV-I 0 W/m 6,1 C 7,2 C 3,2 km/h (1 Bft) 97,87 %
07.10.2016 20:00 7,1 C 93 % 1017,5 hPa 0,0 l/m 1,1 km/h (1 Bft) O 84 0 min 0,000 mm 0,0 UV-I 0 W/m 6,0 C 7,1 C 1,6 km/h (1 Bft) 98,00 %
07.10.2016 20:02 7,1 C 93 % 1017,5 hPa 0,0 l/m 0,2 km/h (0 Bft) O 84 0 min 0,000 mm 0,0 UV-I 0 W/m 6,0 C 7,1 C 1,6 km/h (1 Bft) 98,00 %
07.10.2016 20:04 7,0 C 93 % 1017,5 hPa 0,0 l/m 0,3 km/h (0 Bft) O 85 0 min 0,000 mm 0,0 UV-I 0 W/m 5,9 C 7,0 C 1,6 km/h (1 Bft) 98,00 %
07.10.2016 20:06 7,0 C 93 % 1017,5 hPa 0,0 l/m 0,0 km/h (0 Bft) O 84 0 min 0,000 mm 0,0 UV-I 0 W/m 5,9 C 7,0 C 0,0 km/h (0 Bft) 97,87 %
07.10.2016 20:08 7,0 C 93 % 1017,5 hPa 0,0 l/m 0,0 km/h (0 Bft) O 84 0 min 0,000 mm 0,0 UV-I 0 W/m 5,9 C 7,0 C 1,6 km/h (1 Bft) 100,00 %
07.10.2016 20:10 6,9 C 93 % 1017,5 hPa 0,0 l/m 0,4 km/h (0 Bft) O 84 0 min 0,000 mm 0,0 UV-I 0 W/m 5,8 C 6,9 C 1,6 km/h (1 Bft) 100,00 %
07.10.2016 20:12 6,9 C 93 % 1017,5 hPa 0,0 l/m 1,0 km/h (0 Bft) O 84 0 min 0,000 mm 0,0 UV-I 0 W/m 5,8 C 6,9 C 1,6 km/h (1 Bft) 97,44 %
07.10.2016 20:14 6,9 C 93 % 1017,6 hPa 0,0 l/m 1,3 km/h (1 Bft) O 84 0 min 0,000 mm 0,0 UV-I 0 W/m 5,8 C 6,9 C 1,6 km/h (1 Bft) 100,00 %
07.10.2016 20:16 6,8 C 93 % 1017,6 hPa 0,0 l/m 1,6 km/h (1 Bft) O 84 0 min 0,000 mm 0,0 UV-I 0 W/m 5,7 C 6,8 C 3,2 km/h (1 Bft) 100,00 %
07.10.2016 20:18 6,8 C 93 % 1017,6 hPa 0,0 l/m 2,5 km/h (1 Bft) O 84 0 min 0,000 mm 0,0 UV-I 0 W/m 5,7 C 6,8 C 3,2 km/h (1 Bft) 100,00 %
07.10.2016 20:20 6,8 C 93 % 1017,6 hPa 0,0 l/m 2,6 km/h (1 Bft) O 84 0 min 0,000 mm 0,0 UV-I 0 W/m 5,7 C 6,8 C 3,2 km/h (1 Bft) 100,00 %
07.10.2016 20:22 6,8 C 94 % 1017,6 hPa 0,0 l/m 0,9 km/h (0 Bft) O 84 0 min 0,000 mm 0,0 UV-I 0 W/m 5,9 C 6,8 C 3,2 km/h (1 Bft) 95,83 %
07.10.2016 20:24 6,8 C 94 % 1017,6 hPa 0,0 l/m 1,1 km/h (1 Bft) O 84 0 min 0,000 mm 0,0 UV-I 0 W/m 5,9 C 6,8 C 3,2 km/h (1 Bft) 100,00 %
07.10.2016 20:26 6,8 C 94 % 1017,6 hPa 0,0 l/m 0,5 km/h (0 Bft) O 84 0 min 0,000 mm 0,0 UV-I 0 W/m 5,9 C 6,8 C 1,6 km/h (1 Bft) 100,00 %
07.10.2016 20:28 6,8 C 94 % 1017,6 hPa 0,0 l/m 0,0 km/h (0 Bft) O 84 0 min 0,000 mm 0,0 UV-I 0 W/m 5,9 C 6,8 C 0,0 km/h (0 Bft) 95,74 %
07.10.2016 20:30 6,8 C 94 % 1017,6 hPa 0,0 l/m 0,3 km/h (0 Bft) O 84 0 min 0,000 mm 0,0 UV-I 0 W/m 5,9 C 6,8 C 1,6 km/h (1 Bft) 100,00 %
07.10.2016 20:32 6,8 C 94 % 1017,6 hPa 0,0 l/m 1,6 km/h (1 Bft) O 84 0 min 0,000 mm 0,0 UV-I 0 W/m 5,9 C 6,8 C 3,2 km/h (1 Bft) 100,00 %
07.10.2016 20:34 6,8 C 94 % 1017,6 hPa 0,0 l/m 1,2 km/h (1 Bft) O 84 0 min 0,000 mm 0,0 UV-I 0 W/m 5,9 C 6,8 C 3,2 km/h (1 Bft) 100,00 %
07.10.2016 20:36 6,8 C 94 % 1017,6 hPa 0,0 l/m 0,9 km/h (0 Bft) O 84 0 min 0,000 mm 0,0 UV-I 0 W/m 5,9 C 6,8 C 1,6 km/h (1 Bft) 100,00 %
07.10.2016 20:38 6,8 C 94 % 1017,5 hPa 0,0 l/m 0,0 km/h (0 Bft) O 84 0 min 0,000 mm 0,0 UV-I 0 W/m 5,9 C 6,8 C 1,6 km/h (1 Bft) 100,00 %
07.10.2016 20:40 6,8 C 94 % 1017,5 hPa 0,0 l/m 0,6 km/h (0 Bft) O 84 0 min 0,000 mm 0,0 UV-I 0 W/m 5,9 C 6,8 C 1,6 km/h (1 Bft) 98,11 %
07.10.2016 20:42 6,8 C 94 % 1017,5 hPa 0,0 l/m 0,2 km/h (0 Bft) O 84 0 min 0,000 mm 0,0 UV-I 0 W/m 5,9 C 6,8 C 1,6 km/h (1 Bft) 100,00 %
07.10.2016 20:44 6,7 C 94 % 1017,5 hPa 0,0 l/m 0,0 km/h (0 Bft) O 84 0 min 0,000 mm 0,0 UV-I 0 W/m 5,8 C 6,7 C 0,0 km/h (0 Bft) 96,00 %
07.10.2016 20:46 6,7 C 95 % 1017,6 hPa 0,0 l/m 0,0 km/h (0 Bft) O 84 0 min 0,000 mm 0,0 UV-I 0 W/m 6,0 C 6,7 C 0,0 km/h (0 Bft) 100,00 %
07.10.2016 20:48 6,7 C 95 % 1017,6 hPa 0,0 l/m 0,0 km/h (0 Bft) O 84 0 min 0,000 mm 0,0 UV-I 0 W/m 6,0 C 6,7 C 1,6 km/h (1 Bft) 98,00 %
07.10.2016 20:50 6,7 C 95 % 1017,6 hPa 0,0 l/m 0,0 km/h (0 Bft) O 84 0 min 0,000 mm 0,0 UV-I 0 W/m 6,0 C 6,7 C 0,0 km/h (0 Bft) 97,87 %
07.10.2016 20:52 6,8 C 95 % 1017,6 hPa 0,0 l/m 0,0 km/h (0 Bft) O 84 0 min 0,000 mm 0,0 UV-I 0 W/m 6,1 C 6,8 C 0,0 km/h (0 Bft) 100,00 %
07.10.2016 20:54 6,7 C 95 % 1017,6 hPa 0,0 l/m 0,0 km/h (0 Bft) O 84 0 min 0,000 mm 0,0 UV-I 0 W/m 6,0 C 6,7 C 0,0 km/h (0 Bft) 100,00 %
07.10.2016 20:56 6,7 C 95 % 1017,6 hPa 0,0 l/m 0,0 km/h (0 Bft) O 84 0 min 0,000 mm 0,0 UV-I 0 W/m 6,0 C 6,7 C 0,0 km/h (0 Bft) 97,87 %
07.10.2016 20:58 6,8 C 95 % 1017,6 hPa 0,0 l/m 0,0 km/h (0 Bft) O 84 0 min 0,000 mm 0,0 UV-I 0 W/m 6,1 C 6,8 C 0,0 km/h (0 Bft) 100,00 %
07.10.2016 21:00 6,8 C 95 % 1017,6 hPa 0,0 l/m 0,0 km/h (0 Bft) O 85 0 min 0,000 mm 0,0 UV-I 0 W/m 6,1 C 6,8 C 0,0 km/h (0 Bft) 100,00 %
07.10.2016 21:02 6,8 C 95 % 1017,6 hPa 0,0 l/m 0,0 km/h (0 Bft) O 84 0 min 0,000 mm 0,0 UV-I 0 W/m 6,1 C 6,8 C 0,0 km/h (0 Bft) 100,00 %
07.10.2016 21:04 6,8 C 95 % 1017,6 hPa 0,0 l/m 0,0 km/h (0 Bft) O 84 0 min 0,000 mm 0,0 UV-I 0 W/m 6,1 C 6,8 C 0,0 km/h (0 Bft) 98,00 %
07.10.2016 21:06 6,8 C 95 % 1017,6 hPa 0,0 l/m 0,0 km/h (0 Bft) O 84 0 min 0,000 mm 0,0 UV-I 0 W/m 6,1 C 6,8 C 0,0 km/h (0 Bft) 100,00 %
07.10.2016 21:09 6,8 C 95 % 1017,5 hPa 0,0 l/m 1,2 km/h (1 Bft) O 84 0 min 0,000 mm 0,0 UV-I 0 W/m 6,1 C 6,8 C 1,6 km/h (1 Bft) 97,14 %
07.10.2016 21:10 6,8 C 95 % 1017,5 hPa 0,0 l/m 1,9 km/h (1 Bft) O 84 0 min 0,000 mm 0,0 UV-I 0 W/m 6,1 C 6,8 C 3,2 km/h (1 Bft) 100,00 %
07.10.2016 21:12 6,8 C 95 % 1017,5 hPa 0,0 l/m 1,8 km/h (1 Bft) O 84 0 min 0,000 mm 0,0 UV-I 0 W/m 6,1 C 6,8 C 3,2 km/h (1 Bft) 100,00 %
07.10.2016 21:14 6,8 C 95 % 1017,6 hPa 0,0 l/m 0,7 km/h (0 Bft) O 84 0 min 0,000 mm 0,0 UV-I 0 W/m 6,1 C 6,8 C 1,6 km/h (1 Bft) 100,00 %
07.10.2016 21:16 6,8 C 95 % 1017,6 hPa 0,0 l/m 0,0 km/h (0 Bft) O 84 0 min 0,000 mm 0,0 UV-I 0 W/m 6,1 C 6,8 C 0,0 km/h (0 Bft) 97,87 %
07.10.2016 21:18 6,8 C 95 % 1017,6 hPa 0,0 l/m 0,0 km/h (0 Bft) O 84 0 min 0,000 mm 0,0 UV-I 0 W/m 6,1 C 6,8 C 0,0 km/h (0 Bft) 100,00 %
07.10.2016 21:20 6,8 C 95 % 1017,6 hPa 0,0 l/m 0,0 km/h (0 Bft) O 84 0 min 0,000 mm 0,0 UV-I 0 W/m 6,1 C 6,8 C 0,0 km/h (0 Bft) 100,00 %
07.10.2016 21:22 6,8 C 95 % 1017,6 hPa 0,0 l/m 0,0 km/h (0 Bft) O 84 0 min 0,000 mm 0,0 UV-I 0 W/m 6,1 C 6,8 C 0,0 km/h (0 Bft) 100,00 %
07.10.2016 21:24 6,8 C 95 % 1017,6 hPa 0,0 l/m 0,0 km/h (0 Bft) O 84 0 min 0,000 mm 0,0 UV-I 0 W/m 6,1 C 6,8 C 0,0 km/h (0 Bft) 95,74 %
07.10.2016 21:26 6,8 C 95 % 1017,6 hPa 0,0 l/m 0,0 km/h (0 Bft) O 84 0 min 0,000 mm 0,0 UV-I 0 W/m 6,1 C 6,8 C 0,0 km/h (0 Bft) 100,00 %
07.10.2016 21:28 6,8 C 95 % 1017,6 hPa 0,0 l/m 0,0 km/h (0 Bft) O 84 0 min 0,000 mm 0,0 UV-I 0 W/m 6,1 C 6,8 C 0,0 km/h (0 Bft) 100,00 %
07.10.2016 21:30 6,9 C 95 % 1017,6 hPa 0,0 l/m 0,0 km/h (0 Bft) O 84 0 min 0,000 mm 0,0 UV-I 0 W/m 6,2 C 6,9 C 0,0 km/h (0 Bft) 98,00 %
07.10.2016 21:32 6,9 C 95 % 1017,6 hPa 0,0 l/m 0,0 km/h (0 Bft) O 84 0 min 0,000 mm 0,0 UV-I 0 W/m 6,2 C 6,9 C 0,0 km/h (0 Bft) 96,00 %
07.10.2016 21:34 6,9 C 95 % 1017,6 hPa 0,0 l/m 0,0 km/h (0 Bft) O 84 0 min 0,000 mm 0,0 UV-I 0 W/m 6,2 C 6,9 C 0,0 km/h (0 Bft) 97,87 %
07.10.2016 21:36 6,8 C 95 % 1017,6 hPa 0,0 l/m 0,0 km/h (0 Bft) O 84 0 min 0,000 mm 0,0 UV-I 0 W/m 6,1 C 6,8 C 0,0 km/h (0 Bft) 97,87 %
07.10.2016 21:38 6,8 C 96 % 1017,6 hPa 0,0 l/m 0,0 km/h (0 Bft) O 84 0 min 0,000 mm 0,0 UV-I 0 W/m 6,2 C 6,8 C 0,0 km/h (0 Bft) 94,44 %
07.10.2016 21:40 6,8 C 96 % 1017,6 hPa 0,0 l/m 0,4 km/h (0 Bft) O 84 0 min 0,000 mm 0,0 UV-I 0 W/m 6,2 C 6,8 C 1,6 km/h (1 Bft) 98,11 %
07.10.2016 21:42 6,9 C 96 % 1017,6 hPa 0,0 l/m 2,0 km/h (1 Bft) O 84 0 min 0,000 mm 0,0 UV-I 0 W/m 6,3 C 6,9 C 3,2 km/h (1 Bft) 97,96 %
07.10.2016 21:44 6,9 C 96 % 1017,5 hPa 0,0 l/m 1,8 km/h (1 Bft) O 84 0 min 0,000 mm 0,0 UV-I 0 W/m 6,3 C 6,9 C 3,2 km/h (1 Bft) 94,87 %
07.10.2016 21:46 6,9 C 96 % 1017,5 hPa 0,0 l/m 0,0 km/h (0 Bft) O 84 0 min 0,000 mm 0,0 UV-I 0 W/m 6,3 C 6,9 C 0,0 km/h (0 Bft) 98,00 %
07.10.2016 21:48 6,8 C 96 % 1017,5 hPa 0,0 l/m 0,0 km/h (0 Bft) O 84 0 min 0,000 mm 0,0 UV-I 0 W/m 6,2 C 6,8 C 0,0 km/h (0 Bft) 97,87 %
07.10.2016 21:50 6,8 C 96 % 1017,5 hPa 0,0 l/m 0,8 km/h (0 Bft) O 84 0 min 0,000 mm 0,0 UV-I 0 W/m 6,2 C 6,8 C 1,6 km/h (1 Bft) 91,49 %
07.10.2016 21:52 6,8 C 96 % 1017,5 hPa 0,0 l/m 1,6 km/h (1 Bft) O 84 0 min 0,000 mm 0,0 UV-I 0 W/m 6,2 C 6,8 C 1,6 km/h (1 Bft) 98,00 %
07.10.2016 21:54 6,8 C 96 % 1017,5 hPa 0,0 l/m 1,6 km/h (1 Bft) O 84 0 min 0,000 mm 0,0 UV-I 0 W/m 6,2 C 6,8 C 3,2 km/h (1 Bft) 98,00 %
07.10.2016 21:56 6,8 C 96 % 1017,5 hPa 0,0 l/m 0,2 km/h (0 Bft) O 84 0 min 0,000 mm 0,0 UV-I 0 W/m 6,2 C 6,8 C 1,6 km/h (1 Bft) 98,00 %
07.10.2016 21:58 6,8 C 96 % 1017,6 hPa 0,0 l/m 0,0 km/h (0 Bft) O 84 0 min 0,000 mm 0,0 UV-I 0 W/m 6,2 C 6,8 C 0,0 km/h (0 Bft) 97,37 %
07.10.2016 22:00 6,8 C 96 % 1017,6 hPa 0,0 l/m 0,0 km/h (0 Bft) O 84 0 min 0,000 mm 0,0 UV-I 0 W/m 6,2 C 6,8 C 0,0 km/h (0 Bft) 97,56 %
07.10.2016 22:02 6,8 C 96 % 1017,6 hPa 0,0 l/m 0,0 km/h (0 Bft) O 84 0 min 0,000 mm 0,0 UV-I 0 W/m 6,2 C 6,8 C 0,0 km/h (0 Bft) 94,00 %
07.10.2016 22:04 6,8 C 96 % 1017,6 hPa 0,0 l/m 0,0 km/h (0 Bft) O 84 0 min 0,000 mm 0,0 UV-I 0 W/m 6,2 C 6,8 C 0,0 km/h (0 Bft) 98,00 %
07.10.2016 22:06 6,8 C 96 % 1017,7 hPa 0,0 l/m 0,0 km/h (0 Bft) O 85 0 min 0,000 mm 0,0 UV-I 0 W/m 6,2 C 6,8 C 0,0 km/h (0 Bft) 100,00 %
07.10.2016 22:08 6,8 C 96 % 1017,6 hPa 0,0 l/m 0,0 km/h (0 Bft) O 84 0 min 0,000 mm 0,0 UV-I 0 W/m 6,2 C 6,8 C 0,0 km/h (0 Bft) 100,00 %
07.10.2016 22:10 6,7 C 96 % 1017,6 hPa 0,0 l/m 0,0 km/h (0 Bft) O 84 0 min 0,000 mm 0,0 UV-I 0 W/m 6,1 C 6,7 C 0,0 km/h (0 Bft) 98,00 %
07.10.2016 22:12 6,7 C 96 % 1017,6 hPa 0,0 l/m 0,0 km/h (0 Bft) O 84 0 min 0,000 mm 0,0 UV-I 0 W/m 6,1 C 6,7 C 0,0 km/h (0 Bft) 100,00 %
07.10.2016 22:14 6,7 C 96 % 1017,6 hPa 0,0 l/m 0,0 km/h (0 Bft) O 84 0 min 0,000 mm 0,0 UV-I 0 W/m 6,1 C 6,7 C 0,0 km/h (0 Bft) 100,00 %
07.10.2016 22:16 6,7 C 96 % 1017,6 hPa 0,0 l/m 0,0 km/h (0 Bft) O 84 0 min 0,000 mm 0,0 UV-I 0 W/m 6,1 C 6,7 C 1,6 km/h (1 Bft) 100,00 %
07.10.2016 22:18 6,7 C 96 % 1017,6 hPa 0,0 l/m 0,0 km/h (0 Bft) O 84 0 min 0,000 mm 0,0 UV-I 0 W/m 6,1 C 6,7 C 0,0 km/h (0 Bft) 97,37 %
07.10.2016 22:20 6,7 C 96 % 1017,6 hPa 0,0 l/m 0,0 km/h (0 Bft) O 84 0 min 0,000 mm 0,0 UV-I 0 W/m 6,1 C 6,7 C 0,0 km/h (0 Bft) 100,00 %
07.10.2016 22:22 6,7 C 96 % 1017,6 hPa 0,0 l/m 0,1 km/h (0 Bft) O 84 0 min 0,000 mm 0,0 UV-I 0 W/m 6,1 C 6,7 C 1,6 km/h (1 Bft) 97,92 %
07.10.2016 22:24 6,7 C 96 % 1017,6 hPa 0,0 l/m 1,2 km/h (1 Bft) O 85 0 min 0,000 mm 0,0 UV-I 0 W/m 6,1 C 6,7 C 3,2 km/h (1 Bft) 97,37 %
07.10.2016 22:26 6,7 C 96 % 1017,6 hPa 0,0 l/m 0,7 km/h (0 Bft) O 84 0 min 0,000 mm 0,0 UV-I 0 W/m 6,1 C 6,7 C 3,2 km/h (1 Bft) 100,00 %
07.10.2016 22:28 6,7 C 96 % 1017,6 hPa 0,0 l/m 2,7 km/h (1 Bft) O 84 0 min 0,000 mm 0,0 UV-I 0 W/m 6,1 C 6,7 C 3,2 km/h (1 Bft) 100,00 %
07.10.2016 22:30 6,7 C 96 % 1017,6 hPa 0,0 l/m 1,3 km/h (1 Bft) O 85 0 min 0,000 mm 0,0 UV-I 0 W/m 6,1 C 6,7 C 3,2 km/h (1 Bft) 100,00 %
07.10.2016 22:32 6,7 C 96 % 1017,6 hPa 0,0 l/m 0,6 km/h (0 Bft) O 84 0 min 0,000 mm 0,0 UV-I 0 W/m 6,1 C 6,7 C 1,6 km/h (1 Bft) 100,00 %
07.10.2016 22:34 6,6 C 96 % 1017,7 hPa 0,0 l/m 0,1 km/h (0 Bft) O 85 0 min 0,000 mm 0,0 UV-I 0 W/m 6,0 C 6,6 C 1,6 km/h (1 Bft) 100,00 %
07.10.2016 22:36 6,6 C 96 % 1017,6 hPa 0,0 l/m 0,0 km/h (0 Bft) O 85 0 min 0,000 mm 0,0 UV-I 0 W/m 6,0 C 6,6 C 0,0 km/h (0 Bft) 100,00 %
07.10.2016 22:38 6,6 C 96 % 1017,7 hPa 0,0 l/m 0,0 km/h (0 Bft) O 85 0 min 0,000 mm 0,0 UV-I 0 W/m 6,0 C 6,6 C 0,0 km/h (0 Bft) 100,00 %
07.10.2016 22:40 6,6 C 96 % 1017,7 hPa 0,0 l/m 0,0 km/h (0 Bft) O 84 0 min 0,000 mm 0,0 UV-I 0 W/m 6,0 C 6,6 C 0,0 km/h (0 Bft) 97,87 %
07.10.2016 22:42 6,6 C 96 % 1017,7 hPa 0,0 l/m 0,0 km/h (0 Bft) O 85 0 min 0,000 mm 0,0 UV-I 0 W/m 6,0 C 6,6 C 0,0 km/h (0 Bft) 97,56 %
07.10.2016 22:44 6,6 C 96 % 1017,7 hPa 0,0 l/m 0,0 km/h (0 Bft) O 85 0 min 0,000 mm 0,0 UV-I 0 W/m 6,0 C 6,6 C 0,0 km/h (0 Bft) 100,00 %
07.10.2016 22:46 6,6 C 96 % 1017,7 hPa 0,0 l/m 0,0 km/h (0 Bft) O 84 0 min 0,000 mm 0,0 UV-I 0 W/m 6,0 C 6,6 C 0,0 km/h (0 Bft) 100,00 %
07.10.2016 22:48 6,6 C 96 % 1017,7 hPa 0,0 l/m 0,0 km/h (0 Bft) O 84 0 min 0,000 mm 0,0 UV-I 0 W/m 6,0 C 6,6 C 0,0 km/h (0 Bft) 100,00 %
07.10.2016 22:50 6,6 C 96 % 1017,7 hPa 0,0 l/m 0,0 km/h (0 Bft) O 85 0 min 0,000 mm 0,0 UV-I 0 W/m 6,0 C 6,6 C 0,0 km/h (0 Bft) 97,96 %
07.10.2016 22:52 6,6 C 96 % 1017,7 hPa 0,0 l/m 0,0 km/h (0 Bft) O 85 0 min 0,000 mm 0,0 UV-I 0 W/m 6,0 C 6,6 C 0,0 km/h (0 Bft) 97,87 %
07.10.2016 22:54 6,6 C 96 % 1017,7 hPa 0,0 l/m 0,0 km/h (0 Bft) O 85 0 min 0,000 mm 0,0 UV-I 0 W/m 6,0 C 6,6 C 0,0 km/h (0 Bft) 100,00 %
07.10.2016 22:56 6,6 C 96 % 1017,7 hPa 0,0 l/m 0,0 km/h (0 Bft) O 85 0 min 0,000 mm 0,0 UV-I 0 W/m 6,0 C 6,6 C 0,0 km/h (0 Bft) 100,00 %
07.10.2016 22:58 6,6 C 96 % 1017,7 hPa 0,0 l/m 0,6 km/h (0 Bft) O 84 0 min 0,000 mm 0,0 UV-I 0 W/m 6,0 C 6,6 C 1,6 km/h (1 Bft) 98,28 %
07.10.2016 23:00 6,6 C 96 % 1017,8 hPa 0,0 l/m 0,1 km/h (0 Bft) O 84 0 min 0,000 mm 0,0 UV-I 0 W/m 6,0 C 6,6 C 1,6 km/h (1 Bft) 100,00 %
07.10.2016 23:02 6,7 C 96 % 1017,7 hPa 0,0 l/m 0,0 km/h (0 Bft) O 85 0 min 0,000 mm 0,0 UV-I 0 W/m 6,1 C 6,7 C 0,0 km/h (0 Bft) 100,00 %
07.10.2016 23:04 6,7 C 96 % 1017,8 hPa 0,0 l/m 0,0 km/h (0 Bft) O 84 0 min 0,000 mm 0,0 UV-I 0 W/m 6,1 C 6,7 C 0,0 km/h (0 Bft) 100,00 %
07.10.2016 23:06 6,7 C 96 % 1017,8 hPa 0,0 l/m 0,0 km/h (0 Bft) O 84 0 min 0,000 mm 0,0 UV-I 0 W/m 6,1 C 6,7 C 0,0 km/h (0 Bft) 100,00 %
07.10.2016 23:08 6,7 C 96 % 1017,8 hPa 0,0 l/m 0,0 km/h (0 Bft) O 85 0 min 0,000 mm 0,0 UV-I 0 W/m 6,1 C 6,7 C 0,0 km/h (0 Bft) 97,87 %
07.10.2016 23:10 6,7 C 96 % 1017,8 hPa 0,0 l/m 0,0 km/h (0 Bft) O 84 0 min 0,000 mm 0,0 UV-I 0 W/m 6,1 C 6,7 C 0,0 km/h (0 Bft) 97,87 %
07.10.2016 23:12 6,7 C 96 % 1017,8 hPa 0,0 l/m 0,2 km/h (0 Bft) O 84 0 min 0,000 mm 0,0 UV-I 0 W/m 6,1 C 6,7 C 1,6 km/h (1 Bft) 100,00 %
07.10.2016 23:14 6,7 C 96 % 1017,7 hPa 0,0 l/m 0,0 km/h (0 Bft) O 84 0 min 0,000 mm 0,0 UV-I 0 W/m 6,1 C 6,7 C 0,0 km/h (0 Bft) 100,00 %
07.10.2016 23:16 6,7 C 96 % 1017,8 hPa 0,0 l/m 0,0 km/h (0 Bft) O 84 0 min 0,000 mm 0,0 UV-I 0 W/m 6,1 C 6,7 C 1,6 km/h (1 Bft) 100,00 %
07.10.2016 23:18 6,7 C 96 % 1017,8 hPa 0,0 l/m 0,0 km/h (0 Bft) O 84 0 min 0,000 mm 0,0 UV-I 0 W/m 6,1 C 6,7 C 0,0 km/h (0 Bft) 100,00 %
07.10.2016 23:20 6,7 C 96 % 1017,8 hPa 0,0 l/m 0,0 km/h (0 Bft) O 84 0 min 0,000 mm 0,0 UV-I 0 W/m 6,1 C 6,7 C 0,0 km/h (0 Bft) 100,00 %
07.10.2016 23:22 6,7 C 96 % 1017,8 hPa 0,0 l/m 0,0 km/h (0 Bft) O 85 0 min 0,000 mm 0,0 UV-I 0 W/m 6,1 C 6,7 C 0,0 km/h (0 Bft) 100,00 %
07.10.2016 23:24 6,7 C 96 % 1017,8 hPa 0,0 l/m 0,0 km/h (0 Bft) O 84 0 min 0,000 mm 0,0 UV-I 0 W/m 6,1 C 6,7 C 0,0 km/h (0 Bft) 98,21 %
07.10.2016 23:26 6,7 C 96 % 1017,8 hPa 0,0 l/m 0,0 km/h (0 Bft) O 84 0 min 0,000 mm 0,0 UV-I 0 W/m 6,1 C 6,7 C 0,0 km/h (0 Bft) 100,00 %
07.10.2016 23:28 6,7 C 96 % 1017,8 hPa 0,0 l/m 0,0 km/h (0 Bft) O 85 0 min 0,000 mm 0,0 UV-I 0 W/m 6,1 C 6,7 C 0,0 km/h (0 Bft) 100,00 %
07.10.2016 23:30 6,7 C 96 % 1017,9 hPa 0,0 l/m 0,0 km/h (0 Bft) O 84 0 min 0,000 mm 0,0 UV-I 0 W/m 6,1 C 6,7 C 0,0 km/h (0 Bft) 100,00 %
07.10.2016 23:32 6,7 C 96 % 1017,8 hPa 0,0 l/m 0,0 km/h (0 Bft) O 84 0 min 0,000 mm 0,0 UV-I 0 W/m 6,1 C 6,7 C 0,0 km/h (0 Bft) 100,00 %
07.10.2016 23:34 6,7 C 96 % 1017,9 hPa 0,0 l/m 0,0 km/h (0 Bft) O 85 0 min 0,000 mm 0,0 UV-I 0 W/m 6,1 C 6,7 C 0,0 km/h (0 Bft) 95,74 %
07.10.2016 23:36 6,7 C 96 % 1017,9 hPa 0,0 l/m 0,0 km/h (0 Bft) O 84 0 min 0,000 mm 0,0 UV-I 0 W/m 6,1 C 6,7 C 0,0 km/h (0 Bft) 97,87 %
07.10.2016 23:38 6,7 C 96 % 1017,9 hPa 0,0 l/m 0,0 km/h (0 Bft) O 84 0 min 0,000 mm 0,0 UV-I 0 W/m 6,1 C 6,7 C 0,0 km/h (0 Bft) 97,92 %
07.10.2016 23:40 6,7 C 96 % 1017,8 hPa 0,0 l/m 0,0 km/h (0 Bft) O 85 0 min 0,000 mm 0,0 UV-I 0 W/m 6,1 C 6,7 C 0,0 km/h (0 Bft) 95,92 %
07.10.2016 23:42 6,7 C 96 % 1017,8 hPa 0,0 l/m 0,0 km/h (0 Bft) O 85 0 min 0,000 mm 0,0 UV-I 0 W/m 6,1 C 6,7 C 0,0 km/h (0 Bft) 97,92 %
07.10.2016 23:44 6,8 C 96 % 1017,8 hPa 0,0 l/m 0,0 km/h (0 Bft) O 84 0 min 0,000 mm 0,0 UV-I 0 W/m 6,2 C 6,8 C 0,0 km/h (0 Bft) 98,00 %
07.10.2016 23:46 6,8 C 96 % 1017,8 hPa 0,0 l/m 0,0 km/h (0 Bft) O 84 0 min 0,000 mm 0,0 UV-I 0 W/m 6,2 C 6,8 C 0,0 km/h (0 Bft) 94,29 %
07.10.2016 23:48 6,8 C 96 % 1017,9 hPa 0,0 l/m 0,0 km/h (0 Bft) O 84 0 min 0,000 mm 0,0 UV-I 0 W/m 6,2 C 6,8 C 0,0 km/h (0 Bft) 96,00 %
07.10.2016 23:50 6,8 C 96 % 1017,8 hPa 0,0 l/m 0,0 km/h (0 Bft) O 85 0 min 0,000 mm 0,0 UV-I 0 W/m 6,2 C 6,8 C 0,0 km/h (0 Bft) 94,00 %
07.10.2016 23:52 6,8 C 96 % 1017,8 hPa 0,0 l/m 1,0 km/h (0 Bft) O 84 0 min 0,000 mm 0,0 UV-I 0 W/m 6,2 C 6,8 C 3,2 km/h (1 Bft) 100,00 %
07.10.2016 23:54 6,8 C 96 % 1017,8 hPa 0,0 l/m 0,6 km/h (0 Bft) O 84 0 min 0,000 mm 0,0 UV-I 0 W/m 6,2 C 6,8 C 1,6 km/h (1 Bft) 96,23 %
07.10.2016 23:56 6,8 C 96 % 1017,8 hPa 0,0 l/m 0,8 km/h (0 Bft) O 84 0 min 0,000 mm 0,0 UV-I 0 W/m 6,2 C 6,8 C 1,6 km/h (1 Bft) 97,37 %
07.10.2016 23:58 6,8 C 96 % 1017,8 hPa 0,0 l/m 0,5 km/h (0 Bft) O 85 0 min 0,000 mm 0,0 UV-I 0 W/m 6,2 C 6,8 C 3,2 km/h (1 Bft) 96,43 %
_ Min-Zeit 22:30 12:10 04:50 - 02:24 - - - - - - 20:16 12:40 02:24 21:50
Minimum _ 6,6 C 83 % 1015,1 hPa - 0,0 km/h (0 Bft) - - - - - - 5,7 C 3,1 C 0,0 km/h (0 Bft) 91,49 %
_ Max-Zeit 12:22 01:20 23:30 00:10 12:38 - - 11:48 12:00 11:46 11:48 11:38 12:22 12:34 00:04
Maximum _ 9,9 C 97 % 1017,9 hPa 0,2 l/m 17,7 km/h
O (3 Bft)
- - 2 min 0,102 mm 1,3 UV-I 331 W/m 7,6 C 9,9 C 24,1 km/h
O-NO (4 Bft)
100,00 %
Durchschnitt _ 7,8 C 93 % 1016,5 hPa #3,6 l/m 3,6 km/h (1 Bft) O - #6 min. #0,610 mm 0,8 UV-I 121 W/m 6,8 C 7,5 C 5,7 km/h (1 Bft) 98,66 %